Time,TemperatureF,DewpointF,PressureIn,WindDirection,WindDirectionDegrees,WindSpeedMPH,WindSpeedGustMPH,Humidity,HourlyPrecipIn,Conditions,Clouds,dailyrainin,SoftwareType,DateUTC
2013-03-11 00:00:00,25.8,25.8,29.75,North,1,7.0,11.0,100,0.09,,,0.00,VWS V12.07,2013-03-11 05:00:00,
2013-03-11 00:03:00,25.8,25.6,29.78,NNE,26,1.0,6.0,99,0.07,,,0.12,VWS V12.07,2013-03-11 05:03:00,
2013-03-11 00:04:00,25.8,25.6,29.78,NNW,347,1.0,6.0,99,0.07,,,0.12,VWS V12.07,2013-03-11 05:04:00,
2013-03-11 00:08:00,25.8,25.8,29.78,NW,315,2.0,6.0,100,0.06,,,0.13,VWS V12.07,2013-03-11 05:08:00,
2013-03-11 00:09:00,25.8,25.8,29.78,NNE,22,1.0,6.0,100,0.07,,,0.13,VWS V12.07,2013-03-11 05:09:00,
2013-03-11 00:10:00,25.8,25.8,29.75,North,356,1.0,11.0,100,0.09,,,0.01,VWS V12.07,2013-03-11 05:10:00,
2013-03-11 00:13:00,25.8,25.8,29.78,North,358,0.0,6.0,100,0.07,,,0.13,VWS V12.07,2013-03-11 05:13:00,
2013-03-11 00:14:00,25.8,25.8,29.78,NNE,31,6.0,9.0,100,0.07,,,0.14,VWS V12.07,2013-03-11 05:14:00,
2013-03-11 00:15:00,25.8,25.8,29.77,NNW,340,6.0,9.0,100,0.08,,,0.14,VWS V12.07,2013-03-11 05:15:00,
2013-03-11 00:18:00,25.8,25.8,29.77,NNW,338,0.0,9.0,100,0.08,,,0.14,VWS V12.07,2013-03-11 05:18:00,
2013-03-11 00:19:00,25.8,25.8,29.77,NNW,335,2.0,9.0,100,0.08,,,0.14,VWS V12.07,2013-03-11 05:19:00,
2013-03-11 00:20:00,25.8,25.8,29.77,NNW,341,1.0,9.0,100,0.08,,,0.14,VWS V12.07,2013-03-11 05:20:00,
2013-03-11 00:24:00,25.8,25.8,29.77,NNE,18,3.0,7.0,100,0.09,,,0.15,VWS V12.07,2013-03-11 05:24:00,
2013-03-11 00:25:00,25.8,25.8,29.77,North,0,1.0,7.0,100,0.09,,,0.15,VWS V12.07,2013-03-11 05:25:00,
2013-03-11 00:29:00,25.8,25.8,29.77,NNW,342,2.0,7.0,100,0.08,,,0.15,VWS V12.07,2013-03-11 05:29:00,
2013-03-11 00:30:00,25.8,25.8,29.76,NNE,23,3.0,7.0,100,0.08,,,0.16,VWS V12.07,2013-03-11 05:30:00,
2013-03-11 00:34:00,25.8,25.8,29.76,NE,49,3.0,10.0,100,0.09,,,0.16,VWS V12.07,2013-03-11 05:34:00,
2013-03-11 00:35:00,25.8,25.8,29.76,NNE,18,4.0,10.0,100,0.09,,,0.16,VWS V12.07,2013-03-11 05:35:00,
2013-03-11 00:36:00,25.8,25.8,29.76,NNE,32,1.0,10.0,100,0.09,,,0.16,VWS V12.07,2013-03-11 05:36:00,
2013-03-11 00:39:00,25.8,25.8,29.76,North,4,3.0,8.0,100,0.08,,,0.16,VWS V12.07,2013-03-11 05:39:00,
2013-03-11 00:40:00,25.8,25.8,29.76,NNE,27,4.0,8.0,100,0.08,,,0.16,VWS V12.07,2013-03-11 05:40:00,
2013-03-11 00:41:00,25.8,25.8,29.76,North,0,1.0,8.0,100,0.09,,,0.17,VWS V12.07,2013-03-11 05:41:00,
2013-03-11 00:45:00,25.8,25.8,29.75,North,0,2.0,11.0,100,0.09,,,0.17,VWS V12.07,2013-03-11 05:45:00,
2013-03-11 00:47:00,25.8,25.8,29.75,North,0,0.0,11.0,100,0.08,,,0.00,VWS V12.07,2013-03-11 05:47:00,
2013-03-11 00:50:00,25.8,25.8,29.75,NE,38,6.0,10.0,100,0.09,,,0.01,VWS V12.07,2013-03-11 05:50:00,
2013-03-11 00:52:00,25.8,25.8,29.75,North,0,2.0,10.0,100,0.09,,,0.01,VWS V12.07,2013-03-11 05:52:00,
2013-03-11 00:55:00,25.8,25.8,29.75,North,356,1.0,11.0,100,0.09,,,0.01,VWS V12.07,2013-03-11 05:55:00,
2013-03-11 00:57:00,25.8,25.8,29.75,North,2,2.0,5.0,100,0.07,,,0.01,VWS V12.07,2013-03-11 05:57:00,
2013-03-11 01:00:00,25.8,25.8,29.74,NNW,330,4.0,7.0,100,0.07,,,0.01,VWS V12.07,2013-03-11 06:00:00,
2013-03-11 01:03:00,25.8,25.8,29.74,NW,316,3.0,7.0,100,0.08,,,0.02,VWS V12.07,2013-03-11 06:03:00,
2013-03-11 01:05:00,25.8,25.8,29.74,North,1,1.0,7.0,100,0.08,,,0.02,VWS V12.07,2013-03-11 06:05:00,
2013-03-11 01:08:00,25.8,25.8,29.74,NE,45,1.0,10.0,100,0.07,,,0.02,VWS V12.07,2013-03-11 06:08:00,
2013-03-11 01:10:00,25.8,25.8,29.74,North,0,1.0,10.0,100,0.08,,,0.03,VWS V12.07,2013-03-11 06:10:00,
2013-03-11 01:13:00,25.8,25.8,29.74,North,350,7.0,10.0,100,0.08,,,0.03,VWS V12.07,2013-03-11 06:13:00,
2013-03-11 01:14:00,25.8,25.8,29.74,NNE,18,4.0,10.0,100,0.08,,,0.03,VWS V12.07,2013-03-11 06:14:00,
2013-03-11 01:15:00,25.8,25.8,29.73,NE,49,1.0,10.0,100,0.08,,,0.03,VWS V12.07,2013-03-11 06:15:00,
2013-03-11 01:16:00,25.8,25.8,29.73,NNW,346,1.0,10.0,100,0.06,,,0.03,VWS V12.07,2013-03-11 06:16:00,
2013-03-11 01:19:00,25.8,25.8,29.73,NW,314,2.0,7.0,100,0.07,,,0.04,VWS V12.07,2013-03-11 06:19:00,
2013-03-11 01:20:00,25.8,25.8,29.73,North,356,3.0,7.0,100,0.07,,,0.04,VWS V12.07,2013-03-11 06:20:00,
2013-03-11 01:21:00,25.8,25.8,29.73,NE,34,3.0,7.0,100,0.07,,,0.04,VWS V12.07,2013-03-11 06:21:00,
2013-03-11 01:25:00,25.8,25.8,29.73,NNE,18,2.0,7.0,100,0.08,,,0.05,VWS V12.07,2013-03-11 06:25:00,
2013-03-11 01:26:00,25.8,25.8,29.73,North,6,1.0,7.0,100,0.07,,,0.05,VWS V12.07,2013-03-11 06:26:00,
2013-03-11 01:27:00,25.8,25.8,29.73,North,6,2.0,0.0,100,0.07,,,0.05,VWS V12.07,2013-03-11 06:27:00,
2013-03-11 01:30:00,25.8,25.8,29.73,North,0,4.0,6.0,100,0.07,,,0.05,VWS V12.07,2013-03-11 06:30:00,
2013-03-11 01:32:00,25.8,25.8,29.73,NNW,342,1.0,6.0,100,0.08,,,0.06,VWS V12.07,2013-03-11 06:32:00,
2013-03-11 01:33:00,25.8,25.8,29.73,North,0,2.0,11.0,100,0.08,,,0.06,VWS V12.07,2013-03-11 06:33:00,
2013-03-11 01:35:00,25.8,25.8,29.73,ENE,68,9.0,11.0,100,0.08,,OVC006,0.06,VWS V12.07,2013-03-11 06:35:00,
2013-03-11 01:36:00,25.8,25.8,29.73,NNE,22,1.0,11.0,100,0.07,,OVC006,0.06,VWS V12.07,2013-03-11 06:36:00,
2013-03-11 01:37:00,25.8,25.8,29.73,NNW,339,2.0,14.0,100,0.07,,OVC006,0.07,VWS V12.07,2013-03-11 06:37:00,
2013-03-11 01:38:00,25.8,25.8,29.73,WNW,293,2.0,14.0,100,0.07,,OVC006,0.07,VWS V12.07,2013-03-11 06:38:00,
2013-03-11 01:40:00,25.8,25.8,29.73,NE,46,5.0,14.0,100,0.08,,OVC006,0.07,VWS V12.07,2013-03-11 06:40:00,
2013-03-11 01:41:00,25.8,25.8,29.73,NNE,14,2.0,14.0,100,0.08,,OVC006,0.07,VWS V12.07,2013-03-11 06:41:00,
2013-03-11 01:43:00,25.8,25.8,29.73,NNW,340,1.0,14.0,100,0.08,,OVC006,0.07,VWS V12.07,2013-03-11 06:43:00,
2013-03-11 01:45:00,25.8,25.8,29.72,NW,317,1.0,14.0,100,0.08,,OVC006,0.07,VWS V12.07,2013-03-11 06:45:00,
2013-03-11 01:46:00,25.8,25.8,29.72,NW,317,1.0,14.0,100,0.07,,OVC006,0.07,VWS V12.07,2013-03-11 06:46:00,
2013-03-11 01:48:00,25.8,25.8,29.72,North,4,1.0,14.0,100,0.08,,,0.08,VWS V12.07,2013-03-11 06:48:00,
2013-03-11 01:50:00,25.8,25.8,29.72,NNW,330,4.0,4.0,100,0.08,,OVC008,0.08,VWS V12.07,2013-03-11 06:50:00,
2013-03-11 01:52:00,25.8,25.8,29.72,North,10,1.0,5.0,100,0.08,,OVC008,0.08,VWS V12.07,2013-03-11 06:52:00,
2013-03-11 01:53:00,25.8,25.8,29.72,NNW,346,1.0,6.0,100,0.08,,OVC008,0.08,VWS V12.07,2013-03-11 06:53:00,
2013-03-11 01:54:00,25.8,25.8,29.72,NNW,346,2.0,6.0,100,0.08,,OVC008,0.08,VWS V12.07,2013-03-11 06:54:00,
2013-03-11 01:55:00,25.8,25.8,29.72,NNE,27,1.0,6.0,100,0.09,,OVC008,0.09,VWS V12.07,2013-03-11 06:55:00,
2013-03-11 01:57:00,25.8,25.8,29.72,NNW,340,1.0,3.0,100,0.08,,,0.09,VWS V12.07,2013-03-11 06:57:00,
2013-03-11 01:59:00,25.8,25.8,29.72,NNE,30,1.0,3.0,100,0.08,,OVC008,0.09,VWS V12.07,2013-03-11 06:59:00,
2013-03-11 02:00:00,25.7,25.7,29.69,NW,321,0.0,5.0,100,0.09,,OVC008,0.15,VWS V12.07,2013-03-11 07:00:00,
2013-03-11 02:01:00,25.8,25.8,29.72,North,358,4.0,6.0,100,0.08,,OVC008,0.09,VWS V12.07,2013-03-11 07:01:00,
2013-03-11 02:03:00,25.8,25.8,29.72,NNE,24,2.0,9.0,100,0.08,,OVC008,0.09,VWS V12.07,2013-03-11 07:03:00,
2013-03-11 02:04:00,25.8,25.8,29.72,North,7,3.0,9.0,100,0.08,,OVC008,0.10,VWS V12.07,2013-03-11 07:04:00,
2013-03-11 02:06:00,25.8,25.8,29.72,North,8,0.0,9.0,100,0.08,,OVC008,0.10,VWS V12.07,2013-03-11 07:06:00,
2013-03-11 02:08:00,25.8,25.8,29.72,North,358,5.0,9.0,100,0.08,,OVC008,0.10,VWS V12.07,2013-03-11 07:08:00,
2013-03-11 02:09:00,25.8,25.8,29.72,NNW,342,1.0,9.0,100,0.08,,OVC008,0.10,VWS V12.07,2013-03-11 07:09:00,
2013-03-11 02:10:00,25.8,25.8,29.69,North,0,4.0,9.0,100,0.10,,OVC008,0.17,VWS V12.07,2013-03-11 07:10:00,
2013-03-11 02:12:00,25.8,25.8,29.72,North,3,2.0,9.0,100,0.09,,OVC008,0.11,VWS V12.07,2013-03-11 07:12:00,
2013-03-11 02:13:00,25.8,25.8,29.72,NNW,330,1.0,9.0,100,0.09,,OVC008,0.11,VWS V12.07,2013-03-11 07:13:00,
2013-03-11 02:14:00,25.8,25.8,29.72,North,8,2.0,9.0,100,0.09,,OVC008,0.11,VWS V12.07,2013-03-11 07:14:00,
2013-03-11 02:17:00,25.8,25.8,29.71,NNW,345,2.0,2.0,100,0.08,,OVC008,0.11,VWS V12.07,2013-03-11 07:17:00,
2013-03-11 02:18:00,25.8,25.8,29.71,North,358,2.0,4.0,100,0.09,,OVC008,0.12,VWS V12.07,2013-03-11 07:18:00,
2013-03-11 02:19:00,25.8,25.8,29.71,NE,56,4.0,4.0,100,0.09,,OVC008,0.12,VWS V12.07,2013-03-11 07:19:00,
2013-03-11 02:20:00,25.8,25.8,29.69,NE,39,2.0,14.0,100,0.09,,OVC008,0.18,VWS V12.07,2013-03-11 07:20:00,
2013-03-11 02:22:00,25.8,25.8,29.71,NE,35,1.0,5.0,100,0.09,,OVC008,0.12,VWS V12.07,2013-03-11 07:22:00,
2013-03-11 02:23:00,25.8,25.8,29.71,NNW,333,1.0,7.0,100,0.09,,OVC008,0.12,VWS V12.07,2013-03-11 07:23:00,
2013-03-11 02:24:00,25.8,25.8,29.71,NNE,27,4.0,7.0,100,0.10,,OVC008,0.13,VWS V12.07,2013-03-11 07:24:00,
2013-03-11 02:25:00,25.8,25.8,29.71,North,2,3.0,7.0,100,0.10,,OVC008,0.13,VWS V12.07,2013-03-11 07:25:00,
2013-03-11 02:27:00,25.8,25.8,29.71,North,358,1.0,7.0,100,0.08,,OVC008,0.13,VWS V12.07,2013-03-11 07:27:00,
2013-03-11 02:29:00,25.7,25.7,29.71,NNW,335,3.0,7.0,100,0.08,,OVC008,0.13,VWS V12.07,2013-03-11 07:29:00,
2013-03-11 02:30:00,25.7,25.7,29.70,NNW,340,1.0,7.0,100,0.08,,OVC008,0.13,VWS V12.07,2013-03-11 07:30:00,
2013-03-11 02:32:00,25.7,25.7,29.70,NNW,329,1.0,7.0,100,0.09,,OVC008,0.14,VWS V12.07,2013-03-11 07:32:00,
2013-03-11 02:34:00,25.7,25.7,29.70,North,7,0.0,7.0,100,0.09,,OVC008,0.14,VWS V12.07,2013-03-11 07:34:00,
2013-03-11 02:35:00,25.7,25.7,29.70,North,7,1.0,7.0,100,0.09,,OVC008,0.14,VWS V12.07,2013-03-11 07:35:00,
2013-03-11 02:36:00,25.7,25.7,29.70,North,7,0.0,7.0,100,0.09,,OVC008,0.14,VWS V12.07,2013-03-11 07:36:00,
2013-03-11 02:38:00,25.7,25.7,29.70,North,7,1.0,7.0,100,0.08,,OVC008,0.14,VWS V12.07,2013-03-11 07:38:00,
2013-03-11 02:39:00,25.7,25.7,29.70,North,0,4.0,5.0,100,0.09,,OVC008,0.15,VWS V12.07,2013-03-11 07:39:00,
2013-03-11 02:41:00,25.7,25.7,29.70,NNW,344,0.0,5.0,100,0.09,,OVC008,0.15,VWS V12.07,2013-03-11 07:41:00,
2013-03-11 02:43:00,25.7,25.7,29.70,North,358,1.0,5.0,100,0.09,,OVC008,0.15,VWS V12.07,2013-03-11 07:43:00,
2013-03-11 02:44:00,25.7,25.7,29.69,North,358,1.0,5.0,100,0.09,,OVC008,0.15,VWS V12.07,2013-03-11 07:44:00,
2013-03-11 02:46:00,25.8,25.8,29.69,NNW,339,1.0,7.0,100,0.09,,OVC008,0.16,VWS V12.07,2013-03-11 07:46:00,
2013-03-11 02:49:00,25.8,25.8,29.69,NW,320,1.0,9.0,100,0.09,,OVC008,0.16,VWS V12.07,2013-03-11 07:49:00,
2013-03-11 02:50:00,25.7,25.7,29.67,North,0,0.0,9.0,100,0.07,,OVC008,0.20,VWS V12.07,2013-03-11 07:50:00,
2013-03-11 02:51:00,25.8,25.8,29.69,NNE,17,3.0,9.0,100,0.09,,OVC008,0.16,VWS V12.07,2013-03-11 07:51:00,
2013-03-11 02:54:00,25.8,25.8,29.69,NNW,335,0.0,9.0,100,0.09,,OVC008,0.17,VWS V12.07,2013-03-11 07:54:00,
2013-03-11 02:56:00,25.8,25.8,29.69,North,11,6.0,14.0,100,0.08,,OVC008,0.17,VWS V12.07,2013-03-11 07:56:00,
2013-03-11 02:57:00,25.8,25.8,29.69,NNE,33,5.0,14.0,100,0.08,,OVC008,0.17,VWS V12.07,2013-03-11 07:57:00,
2013-03-11 02:59:00,25.8,25.8,29.69,NNW,344,4.0,14.0,100,0.08,,OVC008,0.17,VWS V12.07,2013-03-11 07:59:00,
2013-03-11 03:00:00,25.8,25.8,29.69,NNE,21,1.0,14.0,100,0.08,,OVC008,0.17,VWS V12.07,2013-03-11 08:00:00,
2013-03-11 03:02:00,25.8,25.8,29.69,North,352,2.0,14.0,100,0.08,,OVC008,0.17,VWS V12.07,2013-03-11 08:02:00,
2013-03-11 03:04:00,25.8,25.8,29.69,North,349,0.0,14.0,100,0.08,,OVC008,0.17,VWS V12.07,2013-03-11 08:04:00,
2013-03-11 03:05:00,25.8,25.8,29.69,NE,39,2.0,14.0,100,0.08,,OVC008,0.18,VWS V12.07,2013-03-11 08:05:00,
2013-03-11 03:07:00,25.8,25.8,29.69,NNE,18,3.0,14.0,100,0.08,,OVC008,0.18,VWS V12.07,2013-03-11 08:07:00,
2013-03-11 03:09:00,25.8,25.8,29.69,NW,304,3.0,4.0,100,0.08,,OVC008,0.18,VWS V12.07,2013-03-11 08:09:00,
2013-03-11 03:10:00,25.7,25.7,29.66,North,1,1.0,9.0,100,0.06,,OVC015,0.21,VWS V12.07,2013-03-11 08:10:00,
2013-03-11 03:11:00,25.8,25.8,29.69,NNW,345,3.0,7.0,100,0.08,,OVC008,0.18,VWS V12.07,2013-03-11 08:11:00,
2013-03-11 03:12:00,25.8,25.8,29.69,North,0,0.0,7.0,100,0.08,,OVC008,0.18,VWS V12.07,2013-03-11 08:12:00,
2013-03-11 03:15:00,25.8,25.8,29.68,North,358,3.0,10.0,100,0.09,,OVC008,0.19,VWS V12.07,2013-03-11 08:15:00,
2013-03-11 03:16:00,25.8,25.8,29.68,North,0,1.0,10.0,100,0.09,,OVC008,0.19,VWS V12.07,2013-03-11 08:16:00,
2013-03-11 03:17:00,25.8,25.8,29.68,North,354,1.0,10.0,100,0.08,,OVC008,0.19,VWS V12.07,2013-03-11 08:17:00,
2013-03-11 03:20:00,25.7,25.7,29.68,North,0,2.0,10.0,100,0.08,,OVC008,0.19,VWS V12.07,2013-03-11 08:20:00,
2013-03-11 03:21:00,25.8,25.8,29.68,North,0,0.0,10.0,100,0.08,,OVC008,0.19,VWS V12.07,2013-03-11 08:21:00,
2013-03-11 03:23:00,25.7,25.7,29.68,NNW,331,1.0,10.0,100,0.08,,OVC008,0.19,VWS V12.07,2013-03-11 08:23:00,
2013-03-11 03:25:00,25.7,25.7,29.68,NNE,30,3.0,10.0,100,0.08,,OVC008,0.19,VWS V12.07,2013-03-11 08:25:00,
2013-03-11 03:27:00,25.7,25.7,29.68,North,358,0.0,10.0,100,0.06,,OVC008,0.19,VWS V12.07,2013-03-11 08:27:00,
2013-03-11 03:28:00,25.7,25.7,29.68,North,358,1.0,7.0,100,0.06,,OVC008,0.20,VWS V12.07,2013-03-11 08:28:00,
2013-03-11 03:29:00,25.7,25.7,29.68,North,358,2.0,7.0,100,0.07,,OVC008,0.20,VWS V12.07,2013-03-11 08:29:00,
2013-03-11 03:30:00,25.7,25.7,29.64,NNW,332,2.0,9.0,100,0.03,,OVC015,0.21,VWS V12.07,2013-03-11 08:30:00,
2013-03-11 03:32:00,25.7,25.7,29.67,ENE,60,3.0,7.0,100,0.07,,OVC008,0.20,VWS V12.07,2013-03-11 08:32:00,
2013-03-11 03:34:00,25.7,25.7,29.67,NNW,335,2.0,9.0,100,0.07,,OVC008,0.20,VWS V12.07,2013-03-11 08:34:00,
2013-03-11 03:37:00,25.7,25.7,29.67,NNW,343,1.0,9.0,100,0.06,,OVC008,0.20,VWS V12.07,2013-03-11 08:37:00,
2013-03-11 03:38:00,25.7,25.7,29.67,North,354,2.0,9.0,100,0.06,,OVC008,0.20,VWS V12.07,2013-03-11 08:38:00,
2013-03-11 03:39:00,25.7,25.7,29.67,North,354,3.0,4.0,100,0.07,,OVC008,0.21,VWS V12.07,2013-03-11 08:39:00,
2013-03-11 03:40:00,25.7,25.7,29.64,NNE,21,4.0,12.0,100,0.02,,OVC015,0.21,VWS V12.07,2013-03-11 08:40:00,
2013-03-11 03:42:00,25.7,25.7,29.67,North,0,1.0,6.0,100,0.07,,OVC008,0.21,VWS V12.07,2013-03-11 08:42:00,
2013-03-11 03:43:00,25.7,25.7,29.67,NNE,30,3.0,6.0,100,0.07,,OVC008,0.21,VWS V12.07,2013-03-11 08:43:00,
2013-03-11 03:44:00,25.7,25.7,29.66,North,5,0.0,6.0,100,0.07,,OVC008,0.21,VWS V12.07,2013-03-11 08:44:00,
2013-03-11 03:45:00,25.7,25.7,29.66,North,5,2.0,0.0,100,0.07,,OVC008,0.21,VWS V12.07,2013-03-11 08:45:00,
2013-03-11 03:47:00,25.7,25.7,29.66,NNW,343,3.0,3.0,100,0.06,,OVC008,0.21,VWS V12.07,2013-03-11 08:47:00,
2013-03-11 03:48:00,25.7,25.7,29.66,North,4,2.0,3.0,100,0.06,,OVC008,0.21,VWS V12.07,2013-03-11 08:48:00,
2013-03-11 03:49:00,25.7,25.7,29.66,North,358,1.0,6.0,100,0.06,,OVC008,0.21,VWS V12.07,2013-03-11 08:49:00,
2013-03-11 03:50:00,25.7,25.7,29.66,North,0,8.0,9.0,100,0.06,,OVC015,0.21,VWS V12.07,2013-03-11 08:50:00,
2013-03-11 03:53:00,25.7,25.7,29.66,NW,322,0.0,9.0,100,0.06,,OVC015,0.21,VWS V12.07,2013-03-11 08:53:00,
2013-03-11 03:55:00,25.7,25.7,29.66,NNE,20,5.0,9.0,100,0.06,,OVC015,0.21,VWS V12.07,2013-03-11 08:55:00,
2013-03-11 03:58:00,25.7,25.7,29.66,North,358,2.0,9.0,100,0.04,,OVC015,0.21,VWS V12.07,2013-03-11 08:58:00,
2013-03-11 03:59:00,25.7,25.7,29.66,North,358,1.0,9.0,100,0.04,,OVC015,0.21,VWS V12.07,2013-03-11 08:59:00,
2013-03-11 04:00:00,25.7,25.7,29.65,North,0,0.0,4.0,100,0.04,,OVC015,0.21,VWS V12.07,2013-03-11 09:00:00,
2013-03-11 04:03:00,25.7,25.7,29.65,NNE,24,1.0,4.0,100,0.04,,OVC015,0.21,VWS V12.07,2013-03-11 09:03:00,
2013-03-11 04:04:00,25.7,25.7,29.65,NNW,335,2.0,4.0,100,0.04,,OVC015,0.21,VWS V12.07,2013-03-11 09:04:00,
2013-03-11 04:05:00,25.7,25.7,29.65,North,0,1.0,4.0,100,0.04,,OVC015,0.21,VWS V12.07,2013-03-11 09:05:00,
2013-03-11 04:08:00,25.7,25.7,29.65,NNW,335,1.0,5.0,100,0.03,,OVC015,0.21,VWS V12.07,2013-03-11 09:08:00,
2013-03-11 04:09:00,25.7,25.7,29.65,North,6,5.0,9.0,100,0.03,,OVC015,0.21,VWS V12.07,2013-03-11 09:09:00,
2013-03-11 04:10:00,25.7,25.7,29.65,North,1,1.0,9.0,100,0.03,,OVC015,0.21,VWS V12.07,2013-03-11 09:10:00,
2013-03-11 04:11:00,25.7,25.7,29.65,North,0,2.0,9.0,100,0.03,,OVC015,0.21,VWS V12.07,2013-03-11 09:11:00,
2013-03-11 04:14:00,25.7,25.7,29.65,East,83,3.0,9.0,100,0.03,,OVC015,0.21,VWS V12.07,2013-03-11 09:14:00,
2013-03-11 04:16:00,25.7,25.7,29.64,North,0,3.0,9.0,100,0.03,,OVC015,0.21,VWS V12.07,2013-03-11 09:16:00,
2013-03-11 04:19:00,25.7,25.7,29.64,NNW,344,1.0,9.0,100,0.02,,OVC015,0.21,VWS V12.07,2013-03-11 09:19:00,
2013-03-11 04:20:00,25.7,25.7,29.65,NW,318,1.0,5.0,100,0.00,,OVC013,0.21,VWS V12.07,2013-03-11 09:20:00,
2013-03-11 04:21:00,25.7,25.7,29.64,NE,46,6.0,12.0,100,0.02,,OVC015,0.21,VWS V12.07,2013-03-11 09:21:00,
2013-03-11 04:22:00,25.7,25.7,29.64,North,354,2.0,12.0,100,0.02,,OVC015,0.21,VWS V12.07,2013-03-11 09:22:00,
2013-03-11 04:24:00,25.7,25.7,29.64,WNW,300,3.0,12.0,100,0.02,,OVC015,0.21,VWS V12.07,2013-03-11 09:24:00,
2013-03-11 04:27:00,25.7,25.7,29.64,NNE,13,2.0,12.0,100,0.02,,OVC015,0.21,VWS V12.07,2013-03-11 09:27:00,
2013-03-11 04:29:00,25.7,25.7,29.64,NNE,27,0.0,5.0,100,0.02,,OVC015,0.21,VWS V12.07,2013-03-11 09:29:00,
2013-03-11 04:30:00,25.7,25.7,29.64,NNE,27,2.0,5.0,100,0.02,,OVC015,0.21,VWS V12.07,2013-03-11 09:30:00,
2013-03-11 04:32:00,25.7,25.7,29.64,NW,313,1.0,5.0,100,0.02,,OVC015,0.21,VWS V12.07,2013-03-11 09:32:00,
2013-03-11 04:33:00,25.7,25.7,29.64,NNW,329,1.0,5.0,100,0.02,,OVC015,0.21,VWS V12.07,2013-03-11 09:33:00,
2013-03-11 04:34:00,25.7,25.7,29.64,North,355,3.0,6.0,100,0.02,,OVC010,0.21,VWS V12.07,2013-03-11 09:34:00,
2013-03-11 04:35:00,25.7,25.7,29.64,North,355,0.0,6.0,100,0.02,,OVC010,0.21,VWS V12.07,2013-03-11 09:35:00,
2013-03-11 04:38:00,25.7,25.7,29.64,NNW,329,4.0,6.0,100,0.01,,OVC010,0.21,VWS V12.07,2013-03-11 09:38:00,
2013-03-11 04:39:00,25.7,25.7,29.64,NNW,334,1.0,6.0,100,0.01,,OVC010,0.21,VWS V12.07,2013-03-11 09:39:00,
2013-03-11 04:40:00,25.7,25.7,29.64,West,266,2.0,6.0,100,0.01,,OVC010,0.21,VWS V12.07,2013-03-11 09:40:00,
2013-03-11 04:43:00,25.7,25.7,29.64,NNE,33,4.0,6.0,100,0.01,,OVC010,0.21,VWS V12.07,2013-03-11 09:43:00,
2013-03-11 04:44:00,25.7,25.7,29.64,NNW,348,2.0,6.0,100,0.01,,OVC010,0.21,VWS V12.07,2013-03-11 09:44:00,
2013-03-11 04:45:00,25.7,25.7,29.64,North,8,3.0,6.0,100,0.01,,OVC010,0.21,VWS V12.07,2013-03-11 09:45:00,
2013-03-11 04:48:00,25.7,25.7,29.64,NNE,32,1.0,6.0,100,0.00,,OVC010,0.21,VWS V12.07,2013-03-11 09:48:00,
2013-03-11 04:49:00,25.7,25.7,29.64,North,0,1.0,5.0,100,0.00,,OVC010,0.21,VWS V12.07,2013-03-11 09:49:00,
2013-03-11 04:50:00,25.7,25.7,29.64,North,6,3.0,5.0,100,0.00,,OVC013,0.21,VWS V12.07,2013-03-11 09:50:00,
2013-03-11 04:52:00,25.7,25.7,29.64,NNW,330,2.0,5.0,100,0.00,,OVC013,0.21,VWS V12.07,2013-03-11 09:52:00,
2013-03-11 04:54:00,25.7,25.7,29.64,NW,318,0.0,5.0,100,0.00,,OVC013,0.21,VWS V12.07,2013-03-11 09:54:00,
2013-03-11 04:55:00,25.7,25.7,29.64,North,354,3.0,5.0,100,0.00,,OVC013,0.21,VWS V12.07,2013-03-11 09:55:00,
2013-03-11 04:58:00,25.7,25.7,29.64,NNE,15,2.0,5.0,100,0.00,,OVC010,0.21,VWS V12.07,2013-03-11 09:58:00,
2013-03-11 04:59:00,25.7,25.7,29.64,NNE,14,0.0,5.0,100,0.00,,OVC013,0.21,VWS V12.07,2013-03-11 09:59:00,
2013-03-11 05:00:00,25.6,25.6,29.65,NNE,24,1.0,7.0,100,0.01,,OVC013,0.22,VWS V12.07,2013-03-11 10:00:00,
2013-03-11 05:01:00,25.7,25.7,29.65,NNW,329,2.0,5.0,100,0.00,,OVC013,0.21,VWS V12.07,2013-03-11 10:01:00,
2013-03-11 05:03:00,25.7,25.7,29.65,NNW,348,1.0,5.0,100,0.00,,OVC013,0.21,VWS V12.07,2013-03-11 10:03:00,
2013-03-11 05:04:00,25.7,25.7,29.65,NW,318,1.0,5.0,100,0.00,,OVC013,0.21,VWS V12.07,2013-03-11 10:04:00,
2013-03-11 05:05:00,25.7,25.7,29.65,NW,318,1.0,5.0,100,0.00,,OVC013,0.21,VWS V12.07,2013-03-11 10:05:00,
2013-03-11 05:09:00,25.7,25.7,29.65,NNE,18,2.0,5.0,100,0.00,,OVC013,0.21,VWS V12.07,2013-03-11 10:09:00,
2013-03-11 05:10:00,25.7,25.7,29.65,NE,37,2.0,5.0,100,0.00,,OVC013,0.21,VWS V12.07,2013-03-11 10:10:00,
2013-03-11 05:11:00,25.6,25.6,29.65,North,352,1.0,5.0,100,0.00,,OVC013,0.21,VWS V12.07,2013-03-11 10:11:00,
2013-03-11 05:14:00,25.6,25.6,29.65,North,0,2.0,5.0,100,0.00,,OVC013,0.21,VWS V12.07,2013-03-11 10:14:00,
2013-03-11 05:16:00,25.6,25.6,29.65,NE,38,1.0,5.0,100,0.00,,OVC013,0.21,VWS V12.07,2013-03-11 10:16:00,
2013-03-11 05:17:00,25.6,25.6,29.65,NNE,30,1.0,5.0,100,0.00,,OVC013,0.21,VWS V12.07,2013-03-11 10:17:00,
2013-03-11 05:18:00,25.6,25.6,29.65,NNE,21,0.0,5.0,100,0.00,,OVC013,0.21,VWS V12.07,2013-03-11 10:18:00,
2013-03-11 05:19:00,25.6,25.6,29.65,North,351,1.0,5.0,100,0.00,,OVC013,0.21,VWS V12.07,2013-03-11 10:19:00,
2013-03-11 05:20:00,25.6,25.6,29.65,NNW,346,2.0,7.0,100,0.01,,OVC013,0.22,VWS V12.07,2013-03-11 10:20:00,
2013-03-11 05:21:00,25.6,25.6,29.65,NW,322,2.0,5.0,100,0.00,,OVC013,0.21,VWS V12.07,2013-03-11 10:21:00,
2013-03-11 05:22:00,25.6,25.6,29.65,North,0,5.0,9.0,100,0.00,,OVC013,0.21,VWS V12.07,2013-03-11 10:22:00,
2013-03-11 05:23:00,25.6,25.6,29.65,North,349,3.0,9.0,100,0.00,,OVC013,0.21,VWS V12.07,2013-03-11 10:23:00,
2013-03-11 05:25:00,25.6,25.6,29.65,NE,51,1.0,9.0,100,0.00,,OVC013,0.21,VWS V12.07,2013-03-11 10:25:00,
2013-03-11 05:26:00,25.6,25.6,29.65,NE,48,0.0,9.0,100,0.00,,OVC013,0.21,VWS V12.07,2013-03-11 10:26:00,
2013-03-11 05:27:00,25.6,25.6,29.65,NE,48,2.0,2.0,100,0.00,,OVC013,0.22,VWS V12.07,2013-03-11 10:27:00,
2013-03-11 05:28:00,25.6,25.6,29.65,NNE,23,4.0,5.0,100,0.01,,OVC013,0.22,VWS V12.07,2013-03-11 10:28:00,
2013-03-11 05:30:00,25.6,25.6,29.65,North,9,1.0,5.0,100,0.01,,OVC013,0.22,VWS V12.07,2013-03-11 10:30:00,
2013-03-11 05:31:00,25.6,25.6,29.65,NNE,14,3.0,5.0,100,0.01,,OVC013,0.22,VWS V12.07,2013-03-11 10:31:00,
2013-03-11 05:33:00,25.6,25.6,29.65,West,266,2.0,0.0,100,0.01,,OVC013,0.22,VWS V12.07,2013-03-11 10:33:00,
2013-03-11 05:35:00,25.6,25.6,29.65,NNW,345,1.0,7.0,100,0.01,,OVC013,0.22,VWS V12.07,2013-03-11 10:35:00,
2013-03-11 05:37:00,25.6,25.6,29.65,North,3,1.0,3.0,100,0.01,,OVC013,0.22,VWS V12.07,2013-03-11 10:37:00,
2013-03-11 05:38:00,25.6,25.6,29.65,North,0,5.0,5.0,100,0.01,,OVC013,0.22,VWS V12.07,2013-03-11 10:38:00,
2013-03-11 05:40:00,25.6,25.6,29.65,North,6,3.0,7.0,100,0.01,,OVC013,0.22,VWS V12.07,2013-03-11 10:40:00,
2013-03-11 05:42:00,25.6,25.6,29.65,NNE,28,3.0,7.0,100,0.01,,OVC013,0.22,VWS V12.07,2013-03-11 10:42:00,
2013-03-11 05:43:00,25.6,25.6,29.65,North,357,0.0,7.0,100,0.01,,OVC013,0.22,VWS V12.07,2013-03-11 10:43:00,
2013-03-11 05:45:00,25.6,25.6,29.65,NNE,24,0.0,7.0,100,0.01,,OVC013,0.22,VWS V12.07,2013-03-11 10:45:00,
2013-03-11 05:47:00,25.6,25.6,29.65,NNE,15,5.0,7.0,100,0.01,,OVC013,0.22,VWS V12.07,2013-03-11 10:47:00,
2013-03-11 05:48:00,25.6,25.6,29.65,North,2,2.0,7.0,100,0.01,,OVC013,0.22,VWS V12.07,2013-03-11 10:48:00,
2013-03-11 05:49:00,25.6,25.6,29.65,North,2,0.0,7.0,100,0.01,,OVC013,0.22,VWS V12.07,2013-03-11 10:49:00,
2013-03-11 05:50:00,25.4,25.4,29.64,NNW,344,1.0,7.0,100,0.02,,OVC014,0.23,VWS V12.07,2013-03-11 10:50:00,
2013-03-11 05:51:00,25.6,25.6,29.65,NNW,329,2.0,7.0,100,0.01,,OVC013,0.22,VWS V12.07,2013-03-11 10:51:00,
2013-03-11 05:53:00,25.6,25.6,29.65,North,11,0.0,0.0,100,0.01,,OVC013,0.22,VWS V12.07,2013-03-11 10:53:00,
2013-03-11 05:54:00,25.6,25.6,29.65,West,274,0.0,6.0,100,0.01,,OVC013,0.22,VWS V12.07,2013-03-11 10:54:00,
2013-03-11 05:57:00,25.6,25.6,29.65,NE,54,5.0,6.0,100,0.01,,OVC013,0.22,VWS V12.07,2013-03-11 10:57:00,
2013-03-11 05:58:00,25.6,25.6,29.65,North,349,0.0,6.0,100,0.01,,OVC013,0.22,VWS V12.07,2013-03-11 10:58:00,
2013-03-11 05:59:00,25.6,25.6,29.65,NW,315,1.0,6.0,100,0.01,,OVC013,0.22,VWS V12.07,2013-03-11 10:59:00,
2013-03-11 06:00:00,25.4,25.4,29.64,NNW,329,1.0,6.0,100,0.01,,OVC014,0.23,VWS V12.07,2013-03-11 11:00:00,
2013-03-11 06:02:00,25.6,25.6,29.65,NNW,329,3.0,6.0,100,0.01,,OVC013,0.22,VWS V12.07,2013-03-11 11:02:00,
2013-03-11 06:03:00,25.6,25.6,29.65,NNW,347,0.0,7.0,100,0.01,,OVC013,0.22,VWS V12.07,2013-03-11 11:03:00,
2013-03-11 06:04:00,25.6,25.6,29.65,NNW,341,1.0,7.0,100,0.01,,OVC013,0.22,VWS V12.07,2013-03-11 11:04:00,
2013-03-11 06:07:00,25.6,25.6,29.65,NW,309,1.0,7.0,100,0.01,,OVC013,0.22,VWS V12.07,2013-03-11 11:07:00,
2013-03-11 06:08:00,25.6,25.6,29.65,NNW,342,1.0,7.0,100,0.01,,OVC013,0.23,VWS V12.07,2013-03-11 11:08:00,
2013-03-11 06:09:00,25.6,25.6,29.65,NNW,339,1.0,4.0,100,0.02,,OVC013,0.23,VWS V12.07,2013-03-11 11:09:00,
2013-03-11 06:10:00,25.6,25.6,29.65,North,358,1.0,4.0,100,0.02,,OVC013,0.23,VWS V12.07,2013-03-11 11:10:00,
2013-03-11 06:12:00,25.6,25.6,29.65,North,6,3.0,4.0,100,0.02,,OVC013,0.23,VWS V12.07,2013-03-11 11:12:00,
2013-03-11 06:13:00,25.6,25.6,29.65,NNE,12,1.0,5.0,100,0.02,,OVC013,0.23,VWS V12.07,2013-03-11 11:13:00,
2013-03-11 06:15:00,25.6,25.6,29.64,NNW,338,2.0,5.0,100,0.02,,OVC013,0.23,VWS V12.07,2013-03-11 11:15:00,
2013-03-11 06:17:00,25.6,25.6,29.64,NNW,340,2.0,5.0,100,0.02,,OVC013,0.23,VWS V12.07,2013-03-11 11:17:00,
2013-03-11 06:19:00,25.6,25.6,29.64,North,0,3.0,5.0,100,0.02,,OVC013,0.23,VWS V12.07,2013-03-11 11:19:00,
2013-03-11 06:20:00,25.6,25.6,29.64,North,0,0.0,5.0,100,0.02,,OVC013,0.23,VWS V12.07,2013-03-11 11:20:00,
2013-03-11 06:21:00,25.6,25.6,29.64,North,0,0.0,5.0,100,0.02,,OVC013,0.23,VWS V12.07,2013-03-11 11:21:00,
2013-03-11 06:23:00,25.6,25.6,29.64,NNW,344,4.0,6.0,100,0.02,,OVC013,0.23,VWS V12.07,2013-03-11 11:23:00,
2013-03-11 06:24:00,25.6,25.6,29.64,North,358,1.0,6.0,100,0.02,,OVC013,0.23,VWS V12.07,2013-03-11 11:24:00,
2013-03-11 06:25:00,25.6,25.6,29.64,NNE,15,1.0,6.0,100,0.02,,OVC013,0.23,VWS V12.07,2013-03-11 11:25:00,
2013-03-11 06:26:00,25.6,25.6,29.64,North,0,2.0,6.0,100,0.02,,OVC013,0.23,VWS V12.07,2013-03-11 11:26:00,
2013-03-11 06:28:00,25.6,25.6,29.64,NNE,19,1.0,6.0,100,0.02,,OVC013,0.23,VWS V12.07,2013-03-11 11:28:00,
2013-03-11 06:29:00,25.4,25.4,29.64,NNE,21,2.0,4.0,100,0.02,,OVC013,0.23,VWS V12.07,2013-03-11 11:29:00,
2013-03-11 06:30:00,25.1,25.1,29.64,NNW,330,0.0,4.0,100,0.01,,,0.23,VWS V12.07,2013-03-11 11:30:00,
2013-03-11 06:31:00,25.4,25.4,29.64,North,0,2.0,4.0,100,0.02,,OVC013,0.23,VWS V12.07,2013-03-11 11:31:00,
2013-03-11 06:32:00,25.4,25.4,29.64,NNE,32,2.0,7.0,100,0.02,,OVC013,0.23,VWS V12.07,2013-03-11 11:32:00,
2013-03-11 06:33:00,25.4,25.4,29.64,NNE,16,1.0,7.0,100,0.02,,OVC013,0.23,VWS V12.07,2013-03-11 11:33:00,
2013-03-11 06:34:00,25.4,25.4,29.64,North,0,1.0,7.0,100,0.02,,OVC014,0.23,VWS V12.07,2013-03-11 11:34:00,
2013-03-11 06:36:00,25.4,25.4,29.64,NNW,344,1.0,7.0,100,0.02,,OVC014,0.23,VWS V12.07,2013-03-11 11:36:00,
2013-03-11 06:37:00,25.4,25.4,29.64,North,2,6.0,6.0,100,0.01,,OVC014,0.23,VWS V12.07,2013-03-11 11:37:00,
2013-03-11 06:38:00,25.4,25.4,29.64,North,0,2.0,6.0,100,0.01,,OVC014,0.23,VWS V12.07,2013-03-11 11:38:00,
2013-03-11 06:39:00,25.4,25.4,29.64,North,0,4.0,6.0,100,0.01,,OVC014,0.23,VWS V12.07,2013-03-11 11:39:00,
2013-03-11 06:40:00,25.1,25.1,29.64,NW,323,0.0,6.0,100,0.00,,OVC013,0.23,VWS V12.07,2013-03-11 11:40:00,
2013-03-11 06:41:00,25.4,25.4,29.64,NW,319,1.0,6.0,100,0.01,,OVC014,0.23,VWS V12.07,2013-03-11 11:41:00,
2013-03-11 06:42:00,25.4,25.4,29.64,North,358,1.0,6.0,100,0.01,,OVC014,0.23,VWS V12.07,2013-03-11 11:42:00,
2013-03-11 06:43:00,25.4,25.4,29.64,North,358,1.0,6.0,100,0.01,,OVC014,0.23,VWS V12.07,2013-03-11 11:43:00,
2013-03-11 06:45:00,25.4,25.4,29.64,NNW,347,2.0,6.0,100,0.01,,OVC014,0.23,VWS V12.07,2013-03-11 11:45:00,
2013-03-11 06:47:00,25.4,25.4,29.64,NE,41,3.0,5.0,100,0.01,,OVC014,0.23,VWS V12.07,2013-03-11 11:47:00,
2013-03-11 06:48:00,25.4,25.4,29.64,NE,41,1.0,5.0,100,0.01,,OVC014,0.23,VWS V12.07,2013-03-11 11:48:00,
2013-03-11 06:50:00,25.4,25.4,29.64,NW,326,0.0,5.0,100,0.01,,,0.23,VWS V12.07,2013-03-11 11:50:00,
2013-03-11 06:53:00,25.3,25.3,29.64,WNW,292,2.0,5.0,100,0.01,,,0.23,VWS V12.07,2013-03-11 11:53:00,
2013-03-11 06:54:00,25.3,25.3,29.64,NW,319,1.0,5.0,100,0.01,,,0.23,VWS V12.07,2013-03-11 11:54:00,
2013-03-11 06:55:00,25.3,25.3,29.64,NW,319,2.0,5.0,100,0.01,,,0.23,VWS V12.07,2013-03-11 11:55:00,
2013-03-11 06:58:00,25.3,25.3,29.64,NNE,15,0.0,3.0,100,0.01,,,0.23,VWS V12.07,2013-03-11 11:58:00,
2013-03-11 06:59:00,25.3,25.3,29.64,North,0,3.0,3.0,100,0.01,,,0.23,VWS V12.07,2013-03-11 11:59:00,
2013-03-11 07:00:00,25.3,25.3,29.64,North,358,2.0,3.0,100,0.01,,,0.23,VWS V12.07,2013-03-11 12:00:00,
2013-03-11 07:03:00,25.3,25.3,29.64,North,350,2.0,5.0,100,0.01,,,0.23,VWS V12.07,2013-03-11 12:03:00,
2013-03-11 07:04:00,25.3,25.3,29.64,North,350,0.0,5.0,100,0.01,,,0.23,VWS V12.07,2013-03-11 12:04:00,
2013-03-11 07:05:00,25.3,25.3,29.64,North,350,0.0,5.0,100,0.01,,,0.23,VWS V12.07,2013-03-11 12:05:00,
2013-03-11 07:08:00,25.3,25.3,29.64,North,5,2.0,5.0,100,0.01,,,0.23,VWS V12.07,2013-03-11 12:08:00,
2013-03-11 07:09:00,25.3,25.3,29.64,North,5,1.0,4.0,100,0.01,,,0.23,VWS V12.07,2013-03-11 12:09:00,
2013-03-11 07:10:00,25.3,25.3,29.64,North,351,3.0,4.0,100,0.01,,,0.23,VWS V12.07,2013-03-11 12:10:00,
2013-03-11 07:13:00,25.1,25.1,29.64,NNW,330,1.0,4.0,100,0.01,,,0.23,VWS V12.07,2013-03-11 12:13:00,
2013-03-11 07:15:00,25.1,25.1,29.64,NNW,330,0.0,4.0,100,0.01,,,0.23,VWS V12.07,2013-03-11 12:15:00,
2013-03-11 07:16:00,25.1,25.1,29.64,North,1,1.0,5.0,100,0.00,,,0.23,VWS V12.07,2013-03-11 12:16:00,
2013-03-11 07:18:00,25.1,25.1,29.64,North,350,2.0,6.0,100,0.00,,,0.23,VWS V12.07,2013-03-11 12:18:00,
2013-03-11 07:20:00,25.1,25.1,29.64,NW,326,1.0,6.0,100,0.00,,,0.23,VWS V12.07,2013-03-11 12:20:00,
2013-03-11 07:22:00,25.1,25.1,29.64,NNW,345,2.0,6.0,100,0.00,,,0.23,VWS V12.07,2013-03-11 12:22:00,
2013-03-11 07:24:00,25.1,25.1,29.64,North,352,0.0,6.0,100,0.00,,,0.23,VWS V12.07,2013-03-11 12:24:00,
2013-03-11 07:25:00,25.1,25.1,29.64,NW,323,0.0,6.0,100,0.00,,,0.23,VWS V12.07,2013-03-11 12:25:00,
2013-03-11 07:26:00,25.1,25.1,29.64,NW,323,1.0,6.0,100,0.00,,,0.23,VWS V12.07,2013-03-11 12:26:00,
2013-03-11 07:27:00,25.1,25.1,29.64,NNW,340,1.0,6.0,100,0.00,,,0.23,VWS V12.07,2013-03-11 12:27:00,
2013-03-11 07:29:00,25.1,25.1,29.64,NNW,330,0.0,6.0,100,0.00,,,0.23,VWS V12.07,2013-03-11 12:29:00,
2013-03-11 07:30:00,24.8,24.6,29.66,WNW,294,3.0,9.0,99,0.00,,,0.23,VWS V12.07,2013-03-11 12:30:00,
2013-03-11 07:31:00,25.1,25.1,29.65,NNW,345,1.0,6.0,100,0.00,,,0.23,VWS V12.07,2013-03-11 12:31:00,
2013-03-11 07:33:00,25.1,25.1,29.65,NNW,340,3.0,6.0,100,0.00,,OVC013,0.23,VWS V12.07,2013-03-11 12:33:00,
2013-03-11 07:34:00,25.1,25.1,29.65,North,1,1.0,5.0,100,0.00,,OVC013,0.23,VWS V12.07,2013-03-11 12:34:00,
2013-03-11 07:36:00,25.1,25.1,29.65,North,0,0.0,5.0,100,0.00,,OVC013,0.23,VWS V12.07,2013-03-11 12:36:00,
2013-03-11 07:38:00,25.1,25.1,29.65,North,358,2.0,4.0,100,0.00,,OVC013,0.23,VWS V12.07,2013-03-11 12:38:00,
2013-03-11 07:40:00,25.0,25.0,29.65,NNW,340,4.0,4.0,100,0.00,,OVC013,0.23,VWS V12.07,2013-03-11 12:40:00,
2013-03-11 07:41:00,25.0,25.0,29.65,North,354,0.0,4.0,100,0.00,,OVC013,0.23,VWS V12.07,2013-03-11 12:41:00,
2013-03-11 07:42:00,25.0,25.0,29.65,North,354,2.0,4.0,100,0.00,,OVC013,0.23,VWS V12.07,2013-03-11 12:42:00,
2013-03-11 07:44:00,25.0,25.0,29.65,NNW,341,1.0,4.0,100,0.00,,OVC013,0.23,VWS V12.07,2013-03-11 12:44:00,
2013-03-11 07:45:00,25.0,25.0,29.66,NNE,25,5.0,5.0,100,0.00,,OVC013,0.23,VWS V12.07,2013-03-11 12:45:00,
2013-03-11 07:47:00,25.0,25.0,29.66,North,4,2.0,3.0,100,0.00,,OVC013,0.23,VWS V12.07,2013-03-11 12:47:00,
2013-03-11 07:49:00,25.0,25.0,29.66,NNW,328,2.0,3.0,100,0.00,,,0.23,VWS V12.07,2013-03-11 12:49:00,
2013-03-11 07:50:00,25.0,25.0,29.66,NNE,12,2.0,9.0,100,0.00,,,0.23,VWS V12.07,2013-03-11 12:50:00,
2013-03-11 07:52:00,25.0,25.0,29.66,NW,321,0.0,9.0,100,0.00,,,0.23,VWS V12.07,2013-03-11 12:52:00,
2013-03-11 07:53:00,25.0,25.0,29.66,NW,321,2.0,9.0,100,0.00,,,0.23,VWS V12.07,2013-03-11 12:53:00,
2013-03-11 07:54:00,25.0,25.0,29.66,North,4,2.0,9.0,100,0.00,,,0.23,VWS V12.07,2013-03-11 12:54:00,
2013-03-11 07:58:00,25.0,25.0,29.66,North,7,1.0,9.0,100,0.00,,,0.23,VWS V12.07,2013-03-11 12:58:00,
2013-03-11 07:59:00,25.0,25.0,29.66,NE,38,4.0,6.0,100,0.00,,,0.23,VWS V12.07,2013-03-11 12:59:00,
2013-03-11 08:00:00,24.7,24.5,29.66,North,358,1.0,10.0,99,0.00,,,0.23,VWS V12.07,2013-03-11 13:00:00,
2013-03-11 08:03:00,25.0,25.0,29.66,North,358,1.0,6.0,100,0.00,,,0.23,VWS V12.07,2013-03-11 13:03:00,
2013-03-11 08:04:00,25.0,25.0,29.66,NNE,20,3.0,6.0,100,0.00,,,0.23,VWS V12.07,2013-03-11 13:04:00,
2013-03-11 08:08:00,24.8,24.8,29.66,North,358,2.0,6.0,100,0.00,,,0.23,VWS V12.07,2013-03-11 13:08:00,
2013-03-11 08:09:00,24.8,24.8,29.66,North,0,1.0,6.0,100,0.00,,,0.23,VWS V12.07,2013-03-11 13:09:00,
2013-03-11 08:10:00,24.7,24.5,29.66,North,0,3.0,9.0,99,0.00,,OVC013,0.23,VWS V12.07,2013-03-11 13:10:00,
2013-03-11 08:13:00,24.8,24.6,29.66,NNE,28,1.0,6.0,99,0.00,,,0.23,VWS V12.07,2013-03-11 13:13:00,
2013-03-11 08:14:00,24.8,24.6,29.66,East,91,1.0,6.0,99,0.00,,,0.23,VWS V12.07,2013-03-11 13:14:00,
2013-03-11 08:18:00,24.8,24.6,29.66,North,3,1.0,4.0,99,0.00,,,0.23,VWS V12.07,2013-03-11 13:18:00,
2013-03-11 08:19:00,24.8,24.6,29.66,West,274,2.0,4.0,99,0.00,,,0.23,VWS V12.07,2013-03-11 13:19:00,
2013-03-11 08:20:00,24.8,24.6,29.66,NNW,345,4.0,4.0,99,0.00,,,0.23,VWS V12.07,2013-03-11 13:20:00,
2013-03-11 08:23:00,24.8,24.6,29.66,NNE,25,3.0,7.0,99,0.00,,,0.23,VWS V12.07,2013-03-11 13:23:00,
2013-03-11 08:24:00,24.8,24.6,29.66,NNE,24,1.0,7.0,99,0.00,,,0.23,VWS V12.07,2013-03-11 13:24:00,
2013-03-11 08:25:00,24.8,24.6,29.66,WNW,302,3.0,7.0,99,0.00,,,0.23,VWS V12.07,2013-03-11 13:25:00,
2013-03-11 08:28:00,24.8,24.6,29.66,NE,36,3.0,0.0,99,0.00,,,0.23,VWS V12.07,2013-03-11 13:28:00,
2013-03-11 08:29:00,24.8,24.6,29.66,NW,321,4.0,9.0,99,0.00,,,0.23,VWS V12.07,2013-03-11 13:29:00,
2013-03-11 08:30:00,24.8,24.6,29.66,NNW,345,0.0,9.0,99,0.00,,,0.23,VWS V12.07,2013-03-11 13:30:00,
2013-03-11 08:33:00,24.8,24.6,29.66,NNW,347,1.0,9.0,99,0.00,,,0.23,VWS V12.07,2013-03-11 13:33:00,
2013-03-11 08:34:00,24.8,24.6,29.66,NNW,347,0.0,9.0,99,0.00,,OVC013,0.23,VWS V12.07,2013-03-11 13:34:00,
2013-03-11 08:35:00,24.8,24.6,29.66,NNE,16,2.0,11.0,99,0.00,,OVC013,0.23,VWS V12.07,2013-03-11 13:35:00,
2013-03-11 08:39:00,24.7,24.5,29.66,North,0,3.0,10.0,99,0.00,,OVC013,0.23,VWS V12.07,2013-03-11 13:39:00,
2013-03-11 08:40:00,24.7,24.5,29.66,NNE,24,0.0,10.0,99,0.00,,OVC013,0.23,VWS V12.07,2013-03-11 13:40:00,
2013-03-11 08:44:00,24.7,24.5,29.66,NNW,340,2.0,10.0,99,0.00,,OVC013,0.23,VWS V12.07,2013-03-11 13:44:00,
2013-03-11 08:45:00,24.7,24.5,29.66,North,358,2.0,10.0,99,0.00,,OVC013,0.23,VWS V12.07,2013-03-11 13:45:00,
2013-03-11 08:49:00,24.7,24.5,29.66,WNW,293,1.0,9.0,99,0.00,,,0.23,VWS V12.07,2013-03-11 13:49:00,
2013-03-11 08:50:00,24.7,24.5,29.66,NNE,15,3.0,9.0,99,0.00,,OVC013,0.23,VWS V12.07,2013-03-11 13:50:00,
2013-03-11 08:54:00,24.7,24.5,29.66,NNE,15,2.0,9.0,99,0.00,,OVC013,0.23,VWS V12.07,2013-03-11 13:54:00,
2013-03-11 08:55:00,24.7,24.5,29.66,NNE,15,1.0,9.0,99,0.00,,OVC013,0.23,VWS V12.07,2013-03-11 13:55:00,
2013-03-11 08:57:00,24.7,24.5,29.66,North,5,2.0,9.0,99,0.00,,OVC013,0.23,VWS V12.07,2013-03-11 13:57:00,
2013-03-11 09:00:00,24.7,24.5,29.66,NNW,334,2.0,7.0,99,0.00,,OVC013,0.23,VWS V12.07,2013-03-11 14:00:00,
2013-03-11 09:02:00,24.7,24.5,29.66,North,354,1.0,7.0,99,0.00,,OVC013,0.23,VWS V12.07,2013-03-11 14:02:00,
2013-03-11 09:05:00,24.7,24.5,29.66,North,352,0.0,7.0,99,0.00,,OVC013,0.23,VWS V12.07,2013-03-11 14:05:00,
2013-03-11 09:07:00,24.7,24.5,29.66,NE,41,1.0,7.0,99,0.00,,OVC013,0.23,VWS V12.07,2013-03-11 14:07:00,
2013-03-11 09:10:00,24.7,24.5,29.66,North,353,4.0,7.0,99,0.00,,OVC013,0.23,VWS V12.07,2013-03-11 14:10:00,
2013-03-11 09:12:00,24.7,24.5,29.66,WNW,298,2.0,7.0,99,0.00,,OVC013,0.23,VWS V12.07,2013-03-11 14:12:00,
2013-03-11 09:15:00,24.7,24.5,29.66,North,0,1.0,7.0,99,0.00,,OVC013,0.23,VWS V12.07,2013-03-11 14:15:00,
2013-03-11 09:16:00,24.7,24.5,29.66,NNW,345,1.0,7.0,99,0.00,,OVC013,0.23,VWS V12.07,2013-03-11 14:16:00,
2013-03-11 09:18:00,24.7,24.5,29.66,North,351,2.0,5.0,99,0.00,,OVC013,0.23,VWS V12.07,2013-03-11 14:18:00,
2013-03-11 09:20:00,24.7,24.5,29.66,NW,318,0.0,5.0,99,0.00,,OVC013,0.23,VWS V12.07,2013-03-11 14:20:00,
2013-03-11 09:21:00,24.7,24.5,29.66,NW,308,0.0,5.0,99,0.00,,OVC013,0.23,VWS V12.07,2013-03-11 14:21:00,
2013-03-11 09:22:00,24.7,24.5,29.66,NW,311,2.0,5.0,99,0.00,,OVC013,0.23,VWS V12.07,2013-03-11 14:22:00,
2013-03-11 09:23:00,24.7,24.5,29.66,NW,311,0.0,5.0,99,0.00,,OVC013,0.23,VWS V12.07,2013-03-11 14:23:00,
2013-03-11 09:25:00,24.7,24.5,29.66,North,0,1.0,5.0,99,0.00,,OVC013,0.23,VWS V12.07,2013-03-11 14:25:00,
2013-03-11 09:26:00,24.7,24.5,29.66,NNW,328,2.0,5.0,99,0.00,,OVC013,0.23,VWS V12.07,2013-03-11 14:26:00,
2013-03-11 09:27:00,24.7,24.5,29.66,NNW,340,2.0,5.0,99,0.00,,OVC013,0.23,VWS V12.07,2013-03-11 14:27:00,
2013-03-11 09:28:00,24.7,24.5,29.66,NNW,341,1.0,5.0,99,0.00,,OVC013,0.23,VWS V12.07,2013-03-11 14:28:00,
2013-03-11 09:30:00,24.4,24.2,29.65,North,356,1.0,6.0,99,0.02,,,0.25,VWS V12.07,2013-03-11 14:30:00,
2013-03-11 09:31:00,24.7,24.5,29.65,North,0,2.0,5.0,99,0.00,,OVC013,0.23,VWS V12.07,2013-03-11 14:31:00,
2013-03-11 09:32:00,24.7,24.5,29.65,North,0,0.0,5.0,99,0.00,,OVC013,0.23,VWS V12.07,2013-03-11 14:32:00,
2013-03-11 09:33:00,24.7,24.5,29.65,North,355,2.0,5.0,99,0.00,,OVC013,0.23,VWS V12.07,2013-03-11 14:33:00,
2013-03-11 09:34:00,24.5,24.3,29.65,North,4,0.0,5.0,99,0.00,,,0.23,VWS V12.07,2013-03-11 14:34:00,
2013-03-11 09:37:00,24.7,24.5,29.65,North,4,1.0,5.0,99,0.00,,,0.23,VWS V12.07,2013-03-11 14:37:00,
2013-03-11 09:38:00,24.5,24.3,29.65,North,358,5.0,5.0,99,0.00,,,0.24,VWS V12.07,2013-03-11 14:38:00,
2013-03-11 09:40:00,24.5,24.3,29.65,North,0,0.0,5.0,99,0.01,,,0.24,VWS V12.07,2013-03-11 14:40:00,
2013-03-11 09:42:00,24.5,24.3,29.65,WNW,288,1.0,5.0,99,0.01,,,0.24,VWS V12.07,2013-03-11 14:42:00,
2013-03-11 09:43:00,24.5,24.3,29.65,NW,318,3.0,5.0,99,0.01,,,0.24,VWS V12.07,2013-03-11 14:43:00,
2013-03-11 09:45:00,24.5,24.3,29.65,NNW,339,1.0,5.0,99,0.01,,,0.24,VWS V12.07,2013-03-11 14:45:00,
2013-03-11 09:48:00,24.5,24.3,29.65,NNW,339,0.0,2.0,99,0.01,,,0.24,VWS V12.07,2013-03-11 14:48:00,
2013-03-11 09:50:00,24.4,24.2,29.65,North,358,2.0,5.0,99,0.03,,,0.26,VWS V12.07,2013-03-11 14:50:00,
2013-03-11 09:51:00,24.7,24.5,29.65,NNW,339,1.0,2.0,99,0.01,,,0.24,VWS V12.07,2013-03-11 14:51:00,
2013-03-11 09:53:00,24.7,24.5,29.65,NNW,345,2.0,2.0,99,0.01,,,0.24,VWS V12.07,2013-03-11 14:53:00,
2013-03-11 09:54:00,24.7,24.5,29.65,NNE,12,1.0,3.0,99,0.01,,,0.24,VWS V12.07,2013-03-11 14:54:00,
2013-03-11 09:57:00,24.7,24.5,29.65,NNW,337,0.0,3.0,99,0.01,,,0.24,VWS V12.07,2013-03-11 14:57:00,
2013-03-11 09:58:00,24.7,24.5,29.65,NNW,337,0.0,0.0,99,0.01,,,0.24,VWS V12.07,2013-03-11 14:58:00,
2013-03-11 09:59:00,24.7,24.5,29.65,WNW,287,2.0,2.0,99,0.01,,,0.24,VWS V12.07,2013-03-11 14:59:00,
2013-03-11 10:00:00,24.2,23.7,29.65,West,269,1.0,6.0,98,0.03,,,0.26,VWS V12.07,2013-03-11 15:00:00,
2013-03-11 10:02:00,24.7,24.5,29.65,WNW,295,1.0,3.0,99,0.01,,,0.24,VWS V12.07,2013-03-11 15:02:00,
2013-03-11 10:04:00,24.7,24.5,29.65,North,353,1.0,3.0,99,0.01,,,0.24,VWS V12.07,2013-03-11 15:04:00,
2013-03-11 10:08:00,24.5,24.3,29.65,North,355,1.0,5.0,99,0.01,,,0.24,VWS V12.07,2013-03-11 15:08:00,
2013-03-11 10:09:00,24.5,24.3,29.65,NNE,13,1.0,6.0,99,0.01,,,0.24,VWS V12.07,2013-03-11 15:09:00,
2013-03-11 10:10:00,24.4,24.2,29.65,North,6,1.0,4.0,99,0.03,,,0.27,VWS V12.07,2013-03-11 15:10:00,
2013-03-11 10:13:00,24.5,24.3,29.65,NW,326,4.0,6.0,99,0.02,,,0.25,VWS V12.07,2013-03-11 15:13:00,
2013-03-11 10:14:00,24.4,24.2,29.65,North,356,3.0,6.0,99,0.02,,,0.25,VWS V12.07,2013-03-11 15:14:00,
2013-03-11 10:15:00,24.4,24.2,29.65,North,356,0.0,6.0,99,0.02,,,0.25,VWS V12.07,2013-03-11 15:15:00,
2013-03-11 10:19:00,24.4,24.2,29.65,NNW,338,1.0,6.0,99,0.02,,,0.25,VWS V12.07,2013-03-11 15:19:00,
2013-03-11 10:20:00,24.4,24.2,29.65,NNW,340,1.0,6.0,99,0.02,,,0.25,VWS V12.07,2013-03-11 15:20:00,
2013-03-11 10:24:00,24.4,24.2,29.65,NNW,340,0.0,5.0,99,0.02,,,0.25,VWS V12.07,2013-03-11 15:24:00,
2013-03-11 10:25:00,24.4,24.2,29.65,NNW,340,0.0,5.0,99,0.02,,,0.25,VWS V12.07,2013-03-11 15:25:00,
2013-03-11 10:29:00,24.5,24.3,29.65,NW,326,1.0,2.0,99,0.02,,,0.25,VWS V12.07,2013-03-11 15:29:00,
2013-03-11 10:30:00,24.5,24.3,29.65,NW,326,1.0,2.0,99,0.02,,,0.25,VWS V12.07,2013-03-11 15:30:00,
2013-03-11 10:34:00,24.4,24.2,29.65,North,1,1.0,4.0,99,0.03,,,0.26,VWS V12.07,2013-03-11 15:34:00,
2013-03-11 10:35:00,24.4,24.2,29.65,North,352,5.0,5.0,99,0.03,,,0.26,VWS V12.07,2013-03-11 15:35:00,
2013-03-11 10:37:00,24.4,24.2,29.65,NNE,15,4.0,5.0,99,0.03,,,0.26,VWS V12.07,2013-03-11 15:37:00,
2013-03-11 10:40:00,24.4,24.2,29.65,East,94,0.0,6.0,99,0.03,,,0.26,VWS V12.07,2013-03-11 15:40:00,
2013-03-11 10:42:00,24.4,24.2,29.65,NNE,15,1.0,6.0,99,0.03,,,0.26,VWS V12.07,2013-03-11 15:42:00,
2013-03-11 10:45:00,24.2,23.7,29.65,West,266,1.0,6.0,98,0.03,,,0.26,VWS V12.07,2013-03-11 15:45:00,
2013-03-11 10:46:00,24.2,23.7,29.65,West,269,0.0,6.0,98,0.03,,,0.26,VWS V12.07,2013-03-11 15:46:00,
2013-03-11 10:47:00,24.2,23.7,29.65,NNW,333,2.0,6.0,98,0.02,,,0.26,VWS V12.07,2013-03-11 15:47:00,
2013-03-11 10:50:00,24.2,24.0,29.65,NW,320,0.0,6.0,99,0.02,,,0.26,VWS V12.07,2013-03-11 15:50:00,
2013-03-11 10:51:00,24.2,24.0,29.65,NW,320,1.0,6.0,99,0.02,,,0.26,VWS V12.07,2013-03-11 15:51:00,
2013-03-11 10:52:00,24.2,24.0,29.65,NW,320,0.0,6.0,99,0.02,,,0.26,VWS V12.07,2013-03-11 15:52:00,
2013-03-11 10:55:00,24.4,24.2,29.65,North,358,2.0,4.0,99,0.03,,,0.27,VWS V12.07,2013-03-11 15:55:00,
2013-03-11 10:56:00,24.2,24.0,29.65,North,352,2.0,4.0,99,0.03,,,0.27,VWS V12.07,2013-03-11 15:56:00,
2013-03-11 10:57:00,24.2,24.0,29.65,North,352,0.0,4.0,99,0.03,,,0.27,VWS V12.07,2013-03-11 15:57:00,
2013-03-11 10:58:00,24.2,24.0,29.65,North,352,0.0,4.0,99,0.03,,,0.27,VWS V12.07,2013-03-11 15:58:00,
2013-03-11 11:00:00,24.5,24.3,29.62,NNW,337,2.0,3.0,99,0.06,,,0.32,VWS V12.07,2013-03-11 16:00:00,
2013-03-11 11:02:00,24.4,24.2,29.63,North,351,1.0,4.0,99,0.03,,,0.27,VWS V12.07,2013-03-11 16:02:00,
2013-03-11 11:03:00,24.4,24.2,29.63,NNW,331,1.0,4.0,99,0.03,,,0.27,VWS V12.07,2013-03-11 16:03:00,
2013-03-11 11:07:00,24.2,23.7,29.63,NNW,328,0.0,7.0,98,0.03,,,0.27,VWS V12.07,2013-03-11 16:07:00,
2013-03-11 11:08:00,24.2,23.7,29.63,NNE,25,4.0,7.0,98,0.03,,,0.27,VWS V12.07,2013-03-11 16:08:00,
2013-03-11 11:10:00,24.5,24.0,29.62,North,0,2.0,6.0,98,0.07,,,0.33,VWS V12.07,2013-03-11 16:10:00,
2013-03-11 11:12:00,24.2,23.7,29.63,NW,326,0.0,6.0,98,0.03,,,0.27,VWS V12.07,2013-03-11 16:12:00,
2013-03-11 11:13:00,24.2,23.7,29.63,NW,326,0.0,6.0,98,0.03,,,0.27,VWS V12.07,2013-03-11 16:13:00,
2013-03-11 11:17:00,24.2,24.0,29.63,North,3,1.0,6.0,99,0.03,,,0.28,VWS V12.07,2013-03-11 16:17:00,
2013-03-11 11:18:00,24.2,23.7,29.63,North,3,0.0,6.0,98,0.03,,,0.28,VWS V12.07,2013-03-11 16:18:00,
2013-03-11 11:20:00,24.7,24.2,29.62,North,358,1.0,10.0,98,0.06,,,0.33,VWS V12.07,2013-03-11 16:20:00,
2013-03-11 11:22:00,24.2,24.0,29.63,NW,321,1.0,4.0,99,0.04,,,0.29,VWS V12.07,2013-03-11 16:22:00,
2013-03-11 11:23:00,24.4,24.2,29.63,North,2,1.0,4.0,99,0.04,,,0.29,VWS V12.07,2013-03-11 16:23:00,
2013-03-11 11:24:00,24.4,24.2,29.63,NNW,347,2.0,4.0,99,0.04,,,0.29,VWS V12.07,2013-03-11 16:24:00,
2013-03-11 11:27:00,24.4,24.2,29.63,NE,34,2.0,3.0,99,0.05,,,0.30,VWS V12.07,2013-03-11 16:27:00,
2013-03-11 11:28:00,24.4,24.2,29.63,NE,34,0.0,3.0,99,0.05,,,0.30,VWS V12.07,2013-03-11 16:28:00,
2013-03-11 11:29:00,24.4,24.2,29.63,NE,34,1.0,3.0,99,0.05,,,0.30,VWS V12.07,2013-03-11 16:29:00,
2013-03-11 11:33:00,24.4,24.2,29.62,NNW,338,1.0,3.0,99,0.06,,,0.31,VWS V12.07,2013-03-11 16:33:00,
2013-03-11 11:34:00,24.4,23.9,29.62,NNW,338,1.0,3.0,98,0.06,,,0.31,VWS V12.07,2013-03-11 16:34:00,
2013-03-11 11:38:00,24.4,24.2,29.62,East,79,1.0,3.0,99,0.05,,,0.31,VWS V12.07,2013-03-11 16:38:00,
2013-03-11 11:39:00,24.4,24.2,29.62,East,79,1.0,2.0,99,0.05,,,0.31,VWS V12.07,2013-03-11 16:39:00,
2013-03-11 11:40:00,24.8,24.3,29.61,NNW,329,2.0,7.0,98,0.07,,,0.34,VWS V12.07,2013-03-11 16:40:00,
2013-03-11 11:43:00,24.5,24.3,29.62,East,79,0.0,2.0,99,0.06,,,0.32,VWS V12.07,2013-03-11 16:43:00,
2013-03-11 11:44:00,24.5,24.3,29.62,WNW,299,1.0,2.0,99,0.06,,,0.32,VWS V12.07,2013-03-11 16:44:00,
2013-03-11 11:45:00,24.5,24.3,29.62,NNW,328,1.0,3.0,99,0.06,,,0.32,VWS V12.07,2013-03-11 16:45:00,
2013-03-11 11:48:00,24.5,24.3,29.62,North,358,2.0,6.0,99,0.06,,,0.32,VWS V12.07,2013-03-11 16:48:00,
2013-03-11 11:49:00,24.5,24.3,29.62,North,358,1.0,6.0,99,0.06,,,0.32,VWS V12.07,2013-03-11 16:49:00,
2013-03-11 11:50:00,24.5,24.0,29.62,North,358,2.0,6.0,98,0.06,,,0.32,VWS V12.07,2013-03-11 16:50:00,
2013-03-11 11:51:00,24.5,24.0,29.62,North,4,0.0,6.0,98,0.06,,,0.33,VWS V12.07,2013-03-11 16:51:00,
2013-03-11 11:53:00,24.5,24.0,29.62,NW,321,0.0,6.0,98,0.07,,,0.33,VWS V12.07,2013-03-11 16:53:00,
2013-03-11 11:54:00,24.5,24.0,29.62,North,352,2.0,6.0,98,0.07,,,0.33,VWS V12.07,2013-03-11 16:54:00,
2013-03-11 11:55:00,24.5,24.0,29.62,North,0,0.0,6.0,98,0.07,,,0.33,VWS V12.07,2013-03-11 16:55:00,
2013-03-11 11:56:00,24.5,24.0,29.62,North,0,0.0,6.0,98,0.07,,,0.33,VWS V12.07,2013-03-11 16:56:00,
2013-03-11 11:58:00,24.5,24.0,29.62,North,10,0.0,3.0,98,0.06,,,0.33,VWS V12.07,2013-03-11 16:58:00,
2013-03-11 11:59:00,24.5,24.0,29.62,NNE,27,2.0,3.0,98,0.06,,,0.33,VWS V12.07,2013-03-11 16:59:00,
2013-03-11 12:00:00,24.5,24.0,29.62,NNE,27,1.0,3.0,98,0.06,,,0.33,VWS V12.07,2013-03-11 17:00:00,
2013-03-11 12:03:00,24.7,24.5,29.62,NNE,26,3.0,10.0,99,0.06,,,0.33,VWS V12.07,2013-03-11 17:03:00,
2013-03-11 12:04:00,24.7,24.2,29.62,North,0,2.0,10.0,98,0.06,,,0.33,VWS V12.07,2013-03-11 17:04:00,
2013-03-11 12:05:00,24.7,24.2,29.62,NW,309,1.0,10.0,98,0.06,,,0.33,VWS V12.07,2013-03-11 17:05:00,
2013-03-11 12:08:00,24.7,24.2,29.62,WNW,290,0.0,10.0,98,0.06,,,0.33,VWS V12.07,2013-03-11 17:08:00,
2013-03-11 12:09:00,24.7,24.2,29.62,North,11,1.0,4.0,98,0.06,,,0.33,VWS V12.07,2013-03-11 17:09:00,
2013-03-11 12:10:00,24.7,24.2,29.62,North,11,2.0,4.0,98,0.06,,,0.33,VWS V12.07,2013-03-11 17:10:00,
2013-03-11 12:13:00,24.7,24.2,29.62,North,10,2.0,9.0,98,0.06,,,0.33,VWS V12.07,2013-03-11 17:13:00,
2013-03-11 12:14:00,24.8,24.3,29.62,North,10,1.0,9.0,98,0.07,,,0.34,VWS V12.07,2013-03-11 17:14:00,
2013-03-11 12:15:00,24.8,24.3,29.61,NW,319,1.0,9.0,98,0.07,,,0.34,VWS V12.07,2013-03-11 17:15:00,
2013-03-11 12:18:00,24.8,24.3,29.61,SSE,155,1.0,5.0,98,0.07,,,0.34,VWS V12.07,2013-03-11 17:18:00,
2013-03-11 12:19:00,24.8,24.3,29.61,NE,36,5.0,5.0,98,0.07,,,0.34,VWS V12.07,2013-03-11 17:19:00,
2013-03-11 12:20:00,24.8,24.3,29.61,South,191,2.0,5.0,98,0.07,,,0.34,VWS V12.07,2013-03-11 17:20:00,
2013-03-11 12:22:00,24.8,24.3,29.61,North,0,0.0,5.0,98,0.07,,,0.34,VWS V12.07,2013-03-11 17:22:00,
2013-03-11 12:23:00,24.8,24.3,29.61,North,358,0.0,5.0,98,0.07,,,0.34,VWS V12.07,2013-03-11 17:23:00,
2013-03-11 12:24:00,24.8,24.3,29.61,West,278,2.0,7.0,98,0.07,,,0.34,VWS V12.07,2013-03-11 17:24:00,
2013-03-11 12:25:00,24.8,24.3,29.61,NNW,329,1.0,7.0,98,0.07,,,0.34,VWS V12.07,2013-03-11 17:25:00,
2013-03-11 12:27:00,24.8,24.3,29.61,NNW,348,2.0,3.0,98,0.04,,,0.34,VWS V12.07,2013-03-11 17:27:00,
2013-03-11 12:28:00,25.0,24.5,29.61,NNW,339,0.0,3.0,98,0.04,,,0.34,VWS V12.07,2013-03-11 17:28:00,
2013-03-11 12:30:00,25.0,24.3,29.60,North,1,0.0,4.0,97,0.04,,,0.34,VWS V12.07,2013-03-11 17:30:00,
2013-03-11 12:33:00,25.0,24.3,29.60,NNE,15,0.0,4.0,97,0.04,,,0.34,VWS V12.07,2013-03-11 17:33:00,
2013-03-11 12:35:00,25.1,24.6,29.60,NNW,330,0.0,6.0,98,0.04,,,0.34,VWS V12.07,2013-03-11 17:35:00,
2013-03-11 12:38:00,25.3,24.6,29.60,North,358,1.0,5.0,97,0.03,,,0.34,VWS V12.07,2013-03-11 17:38:00,
2013-03-11 12:40:00,25.3,24.6,29.60,NNE,17,0.0,5.0,97,0.03,,,0.34,VWS V12.07,2013-03-11 17:40:00,
2013-03-11 12:43:00,25.4,24.9,29.60,West,259,2.0,5.0,98,0.03,,,0.34,VWS V12.07,2013-03-11 17:43:00,
2013-03-11 12:46:00,25.4,24.7,29.60,North,354,0.0,5.0,97,0.03,,,0.34,VWS V12.07,2013-03-11 17:46:00,
2013-03-11 12:48:00,25.4,24.7,29.60,North,1,0.0,4.0,97,0.02,,,0.34,VWS V12.07,2013-03-11 17:48:00,
2013-03-11 12:50:00,25.7,24.5,29.60,NW,321,1.0,12.0,95,0.00,,,0.34,VWS V12.07,2013-03-11 17:50:00,
2013-03-11 12:51:00,25.6,24.9,29.60,NE,37,4.0,4.0,97,0.02,,,0.34,VWS V12.07,2013-03-11 17:51:00,
2013-03-11 12:52:00,25.6,24.9,29.60,North,0,6.0,10.0,97,0.02,,,0.34,VWS V12.07,2013-03-11 17:52:00,
2013-03-11 12:53:00,25.6,24.9,29.60,WNW,290,0.0,10.0,97,0.02,,,0.34,VWS V12.07,2013-03-11 17:53:00,
2013-03-11 12:54:00,25.6,24.9,29.60,NW,314,1.0,10.0,97,0.02,,,0.34,VWS V12.07,2013-03-11 17:54:00,
2013-03-11 12:56:00,25.6,24.9,29.60,NNW,342,1.0,10.0,97,0.02,,,0.34,VWS V12.07,2013-03-11 17:56:00,
2013-03-11 12:57:00,25.6,24.9,29.60,NNW,341,3.0,0.0,97,0.01,,,0.34,VWS V12.07,2013-03-11 17:57:00,
2013-03-11 12:58:00,25.6,24.6,29.60,NW,323,2.0,5.0,96,0.01,,,0.34,VWS V12.07,2013-03-11 17:58:00,
2013-03-11 12:59:00,25.6,24.6,29.60,NNW,337,4.0,5.0,96,0.01,,,0.34,VWS V12.07,2013-03-11 17:59:00,
2013-03-11 13:00:00,26.0,24.8,29.60,NNE,22,1.0,5.0,95,0.00,,,0.34,VWS V12.07,2013-03-11 18:00:00,
2013-03-11 13:01:00,25.6,24.6,29.59,NNE,23,0.0,5.0,96,0.01,,,0.34,VWS V12.07,2013-03-11 18:01:00,
2013-03-11 13:02:00,25.7,24.7,29.59,NNE,23,0.0,5.0,96,0.01,,,0.34,VWS V12.07,2013-03-11 18:02:00,
2013-03-11 13:03:00,25.7,24.7,29.59,NNE,23,0.0,5.0,96,0.01,,,0.34,VWS V12.07,2013-03-11 18:03:00,
2013-03-11 13:04:00,25.7,24.7,29.59,NW,311,2.0,5.0,96,0.01,,,0.34,VWS V12.07,2013-03-11 18:04:00,
2013-03-11 13:07:00,25.8,24.8,29.59,NW,307,1.0,6.0,96,0.01,,,0.34,VWS V12.07,2013-03-11 18:07:00,
2013-03-11 13:08:00,25.8,24.8,29.59,North,358,3.0,6.0,96,0.01,,,0.34,VWS V12.07,2013-03-11 18:08:00,
2013-03-11 13:09:00,25.8,24.8,29.59,NNW,332,2.0,6.0,96,0.01,,,0.34,VWS V12.07,2013-03-11 18:09:00,
2013-03-11 13:10:00,26.1,24.9,29.60,North,352,1.0,6.0,95,0.00,,,0.34,VWS V12.07,2013-03-11 18:10:00,
2013-03-11 13:12:00,25.8,24.8,29.59,NNE,20,2.0,7.0,96,0.01,,,0.34,VWS V12.07,2013-03-11 18:12:00,
2013-03-11 13:13:00,25.8,24.8,29.59,NNE,13,2.0,7.0,96,0.01,,,0.34,VWS V12.07,2013-03-11 18:13:00,
2013-03-11 13:14:00,25.8,24.8,29.59,NNW,336,1.0,7.0,96,0.01,,,0.34,VWS V12.07,2013-03-11 18:14:00,
2013-03-11 13:17:00,25.8,24.8,29.59,North,358,2.0,7.0,96,0.00,,,0.34,VWS V12.07,2013-03-11 18:17:00,
2013-03-11 13:18:00,25.8,24.8,29.59,North,358,2.0,7.0,96,0.00,,,0.34,VWS V12.07,2013-03-11 18:18:00,
2013-03-11 13:19:00,26.0,25.0,29.59,North,358,0.0,7.0,96,0.00,,,0.34,VWS V12.07,2013-03-11 18:19:00,
2013-03-11 13:20:00,26.3,25.1,29.59,NNE,32,0.0,6.0,95,0.01,,,0.35,VWS V12.07,2013-03-11 18:20:00,
2013-03-11 13:22:00,26.0,25.0,29.59,North,356,1.0,7.0,96,0.00,,,0.34,VWS V12.07,2013-03-11 18:22:00,
2013-03-11 13:23:00,26.0,25.0,29.59,North,354,1.0,6.0,96,0.00,,,0.34,VWS V12.07,2013-03-11 18:23:00,
2013-03-11 13:24:00,26.0,25.0,29.59,NNE,15,4.0,6.0,96,0.00,,,0.34,VWS V12.07,2013-03-11 18:24:00,
2013-03-11 13:27:00,25.8,24.6,29.59,NNE,24,1.0,12.0,95,0.00,,,0.34,VWS V12.07,2013-03-11 18:27:00,
2013-03-11 13:28:00,25.8,24.6,29.59,NNE,24,1.0,12.0,95,0.00,,,0.34,VWS V12.07,2013-03-11 18:28:00,
2013-03-11 13:29:00,25.8,24.6,29.60,NNW,334,2.0,12.0,95,0.00,,,0.34,VWS V12.07,2013-03-11 18:29:00,
2013-03-11 13:30:00,25.8,24.6,29.60,NNW,337,1.0,12.0,95,0.00,,,0.34,VWS V12.07,2013-03-11 18:30:00,
2013-03-11 13:32:00,25.7,24.5,29.60,NW,321,0.0,12.0,95,0.00,,,0.34,VWS V12.07,2013-03-11 18:32:00,
2013-03-11 13:33:00,25.7,24.5,29.60,NNW,343,2.0,12.0,95,0.00,,,0.34,VWS V12.07,2013-03-11 18:33:00,
2013-03-11 13:35:00,25.7,24.5,29.60,NW,321,1.0,12.0,95,0.00,,,0.34,VWS V12.07,2013-03-11 18:35:00,
2013-03-11 13:38:00,25.8,24.6,29.60,NNW,348,0.0,12.0,95,0.00,,,0.34,VWS V12.07,2013-03-11 18:38:00,
2013-03-11 13:39:00,25.8,24.6,29.60,North,349,0.0,12.0,95,0.00,,,0.34,VWS V12.07,2013-03-11 18:39:00,
2013-03-11 13:40:00,26.0,24.8,29.60,West,263,0.0,5.0,95,0.00,,,0.34,VWS V12.07,2013-03-11 18:40:00,
2013-03-11 13:43:00,26.0,24.8,29.60,NNE,28,4.0,0.0,95,0.00,,,0.34,VWS V12.07,2013-03-11 18:43:00,
2013-03-11 13:44:00,26.0,24.8,29.60,North,10,1.0,5.0,95,0.00,,,0.34,VWS V12.07,2013-03-11 18:44:00,
2013-03-11 13:45:00,26.0,24.8,29.60,NNE,22,3.0,5.0,95,0.00,,,0.34,VWS V12.07,2013-03-11 18:45:00,
2013-03-11 13:48:00,26.0,24.8,29.60,WNW,295,0.0,5.0,95,0.00,,,0.34,VWS V12.07,2013-03-11 18:48:00,
2013-03-11 13:49:00,26.0,24.8,29.60,WNW,295,0.0,5.0,95,0.00,,,0.34,VWS V12.07,2013-03-11 18:49:00,
2013-03-11 13:50:00,26.1,24.9,29.60,NNW,339,3.0,5.0,95,0.00,,,0.34,VWS V12.07,2013-03-11 18:50:00,
2013-03-11 13:52:00,26.1,24.9,29.60,NNW,342,2.0,5.0,95,0.00,,,0.34,VWS V12.07,2013-03-11 18:52:00,
2013-03-11 13:53:00,26.1,24.9,29.60,NE,49,2.0,6.0,95,0.00,,,0.34,VWS V12.07,2013-03-11 18:53:00,
2013-03-11 13:54:00,26.1,24.9,29.60,NNE,27,3.0,6.0,95,0.00,,,0.34,VWS V12.07,2013-03-11 18:54:00,
2013-03-11 13:56:00,26.1,24.9,29.60,North,358,1.0,6.0,95,0.00,,,0.34,VWS V12.07,2013-03-11 18:56:00,
2013-03-11 13:57:00,26.1,24.9,29.60,North,0,2.0,6.0,95,0.00,,,0.35,VWS V12.07,2013-03-11 18:57:00,
2013-03-11 13:59:00,26.1,24.9,29.60,North,0,2.0,6.0,95,0.01,,,0.35,VWS V12.07,2013-03-11 18:59:00,
2013-03-11 14:00:00,26.3,25.3,29.58,North,356,0.0,9.0,96,0.02,,,0.36,VWS V12.07,2013-03-11 19:00:00,
2013-03-11 14:01:00,26.1,24.9,29.59,ENE,77,2.0,6.0,95,0.01,,,0.35,VWS V12.07,2013-03-11 19:01:00,
2013-03-11 14:03:00,26.3,25.3,29.59,NNW,330,2.0,6.0,96,0.01,,,0.35,VWS V12.07,2013-03-11 19:03:00,
2013-03-11 14:04:00,26.3,25.3,29.59,NE,34,2.0,6.0,96,0.01,,,0.35,VWS V12.07,2013-03-11 19:04:00,
2013-03-11 14:06:00,26.3,25.1,29.59,NW,320,1.0,6.0,95,0.01,,,0.35,VWS V12.07,2013-03-11 19:06:00,
2013-03-11 14:08:00,26.3,25.1,29.59,North,0,3.0,6.0,95,0.01,,,0.35,VWS V12.07,2013-03-11 19:08:00,
2013-03-11 14:09:00,26.3,25.1,29.59,NW,314,1.0,6.0,95,0.01,,,0.35,VWS V12.07,2013-03-11 19:09:00,
2013-03-11 14:10:00,26.4,25.4,29.58,North,353,1.0,3.0,96,0.02,,,0.36,VWS V12.07,2013-03-11 19:10:00,
2013-03-11 14:12:00,26.3,25.3,29.59,NNW,328,1.0,6.0,96,0.01,,,0.35,VWS V12.07,2013-03-11 19:12:00,
2013-03-11 14:13:00,26.3,25.3,29.59,North,358,0.0,5.0,96,0.01,,,0.35,VWS V12.07,2013-03-11 19:13:00,
2013-03-11 14:14:00,26.4,25.4,29.59,North,358,1.0,5.0,96,0.01,,,0.35,VWS V12.07,2013-03-11 19:14:00,
2013-03-11 14:17:00,26.4,25.4,29.59,North,0,0.0,2.0,96,0.01,,,0.35,VWS V12.07,2013-03-11 19:17:00,
2013-03-11 14:18:00,26.6,25.6,29.59,North,0,1.0,2.0,96,0.01,,,0.35,VWS V12.07,2013-03-11 19:18:00,
2013-03-11 14:19:00,26.6,25.6,29.59,North,3,1.0,2.0,96,0.01,,,0.35,VWS V12.07,2013-03-11 19:19:00,
2013-03-11 14:20:00,26.6,25.6,29.59,North,6,1.0,2.0,96,0.01,,,0.35,VWS V12.07,2013-03-11 19:20:00,
2013-03-11 14:22:00,26.6,25.6,29.59,NE,42,2.0,2.0,96,0.01,,,0.35,VWS V12.07,2013-03-11 19:22:00,
2013-03-11 14:23:00,26.6,25.6,29.59,NNE,22,3.0,9.0,96,0.01,,,0.35,VWS V12.07,2013-03-11 19:23:00,
2013-03-11 14:24:00,26.6,25.4,29.59,NNW,345,4.0,9.0,95,0.01,,,0.35,VWS V12.07,2013-03-11 19:24:00,
2013-03-11 14:25:00,26.6,25.6,29.59,NNW,327,3.0,9.0,96,0.01,,,0.35,VWS V12.07,2013-03-11 19:25:00,
2013-03-11 14:27:00,26.4,25.2,29.59,NW,321,0.0,5.0,95,0.01,,,0.35,VWS V12.07,2013-03-11 19:27:00,
2013-03-11 14:29:00,26.4,25.2,29.59,NNE,31,4.0,5.0,95,0.01,,,0.35,VWS V12.07,2013-03-11 19:29:00,
2013-03-11 14:30:00,26.3,25.1,29.59,North,0,0.0,7.0,95,0.01,,,0.35,VWS V12.07,2013-03-11 19:30:00,
2013-03-11 14:32:00,26.3,25.1,29.59,North,349,3.0,7.0,95,0.01,,,0.35,VWS V12.07,2013-03-11 19:32:00,
2013-03-11 14:34:00,26.3,25.1,29.59,North,349,2.0,7.0,95,0.01,,,0.35,VWS V12.07,2013-03-11 19:34:00,
2013-03-11 14:35:00,26.3,25.3,29.59,North,8,1.0,7.0,96,0.02,,,0.36,VWS V12.07,2013-03-11 19:35:00,
2013-03-11 14:38:00,26.4,25.4,29.59,NNW,336,1.0,7.0,96,0.02,,,0.36,VWS V12.07,2013-03-11 19:38:00,
2013-03-11 14:39:00,26.4,25.4,29.59,North,355,1.0,6.0,96,0.02,,,0.36,VWS V12.07,2013-03-11 19:39:00,
2013-03-11 14:40:00,26.4,25.4,29.59,North,5,5.0,9.0,96,0.02,,,0.36,VWS V12.07,2013-03-11 19:40:00,
2013-03-11 14:41:00,26.4,25.4,29.59,North,11,2.0,9.0,96,0.02,,,0.36,VWS V12.07,2013-03-11 19:41:00,
2013-03-11 14:43:00,26.3,25.1,29.59,North,356,2.0,9.0,95,0.02,,,0.36,VWS V12.07,2013-03-11 19:43:00,
2013-03-11 14:44:00,26.3,25.1,29.58,North,356,1.0,9.0,95,0.02,,,0.36,VWS V12.07,2013-03-11 19:44:00,
2013-03-11 14:45:00,26.3,25.3,29.58,North,356,0.0,9.0,96,0.02,,,0.36,VWS V12.07,2013-03-11 19:45:00,
2013-03-11 14:47:00,26.4,25.4,29.58,North,356,0.0,9.0,96,0.02,,,0.36,VWS V12.07,2013-03-11 19:47:00,
2013-03-11 14:48:00,26.4,25.4,29.58,North,358,2.0,3.0,96,0.02,,,0.36,VWS V12.07,2013-03-11 19:48:00,
2013-03-11 14:49:00,26.4,25.4,29.58,North,358,0.0,3.0,96,0.02,,,0.36,VWS V12.07,2013-03-11 19:49:00,
2013-03-11 14:50:00,25.3,24.1,29.60,NNW,335,0.0,4.0,95,0.02,,OVC047,0.37,VWS V12.07,2013-03-11 19:50:00,
2013-03-11 14:51:00,26.4,25.4,29.58,North,357,2.0,3.0,96,0.02,,OVC047,0.36,VWS V12.07,2013-03-11 19:51:00,
2013-03-11 14:52:00,26.4,25.4,29.58,North,353,1.0,3.0,96,0.02,,OVC047,0.36,VWS V12.07,2013-03-11 19:52:00,
2013-03-11 14:54:00,26.4,25.4,29.58,North,353,0.0,3.0,96,0.02,,OVC047,0.36,VWS V12.07,2013-03-11 19:54:00,
2013-03-11 14:56:00,26.4,25.4,29.58,North,353,0.0,3.0,96,0.02,,,0.36,VWS V12.07,2013-03-11 19:56:00,
2013-03-11 14:57:00,26.4,25.4,29.58,North,353,2.0,2.0,96,0.02,,,0.36,VWS V12.07,2013-03-11 19:57:00,
2013-03-11 14:59:00,26.4,25.4,29.59,NNE,31,1.0,2.0,96,0.03,,OVC047,0.37,VWS V12.07,2013-03-11 19:59:00,
2013-03-11 15:00:00,25.0,23.5,29.60,NE,39,2.0,5.0,94,0.01,,OVC023,0.37,VWS V12.07,2013-03-11 20:00:00,
2013-03-11 15:01:00,26.4,25.4,29.59,North,8,2.0,4.0,96,0.03,,OVC047,0.37,VWS V12.07,2013-03-11 20:01:00,
2013-03-11 15:02:00,26.6,25.6,29.59,North,8,1.0,4.0,96,0.03,,OVC047,0.37,VWS V12.07,2013-03-11 20:02:00,
2013-03-11 15:04:00,26.6,25.6,29.59,North,3,2.0,4.0,96,0.03,,OVC047,0.37,VWS V12.07,2013-03-11 20:04:00,
2013-03-11 15:05:00,26.6,25.6,29.59,North,4,2.0,4.0,96,0.03,,OVC047,0.37,VWS V12.07,2013-03-11 20:05:00,
2013-03-11 15:07:00,26.4,25.4,29.59,WNW,288,2.0,7.0,96,0.02,,OVC047,0.37,VWS V12.07,2013-03-11 20:07:00,
2013-03-11 15:09:00,26.3,25.1,29.59,NNW,330,1.0,7.0,95,0.02,,OVC047,0.37,VWS V12.07,2013-03-11 20:09:00,
2013-03-11 15:10:00,26.1,24.9,29.59,NNW,343,2.0,7.0,95,0.02,,OVC047,0.37,VWS V12.07,2013-03-11 20:10:00,
2013-03-11 15:12:00,26.1,24.9,29.59,North,352,2.0,7.0,95,0.02,,OVC047,0.37,VWS V12.07,2013-03-11 20:12:00,
2013-03-11 15:13:00,26.0,24.8,29.59,NNW,332,0.0,7.0,95,0.02,,OVC047,0.37,VWS V12.07,2013-03-11 20:13:00,
2013-03-11 15:15:00,25.8,24.3,29.59,North,0,2.0,7.0,94,0.02,,OVC047,0.37,VWS V12.07,2013-03-11 20:15:00,
2013-03-11 15:17:00,25.7,24.5,29.59,NNW,346,1.0,3.0,95,0.02,,OVC047,0.37,VWS V12.07,2013-03-11 20:17:00,
2013-03-11 15:19:00,25.7,24.5,29.59,NNW,335,3.0,0.0,95,0.02,,OVC047,0.37,VWS V12.07,2013-03-11 20:19:00,
2013-03-11 15:20:00,25.6,24.4,29.59,North,10,0.0,3.0,95,0.02,,OVC047,0.37,VWS V12.07,2013-03-11 20:20:00,
2013-03-11 15:21:00,25.6,24.4,29.59,North,350,2.0,3.0,95,0.02,,OVC047,0.37,VWS V12.07,2013-03-11 20:21:00,
2013-03-11 15:22:00,25.6,24.4,29.59,NW,308,2.0,3.0,95,0.02,,OVC047,0.37,VWS V12.07,2013-03-11 20:22:00,
2013-03-11 15:24:00,25.6,24.4,29.59,NNW,338,0.0,3.0,95,0.02,,OVC047,0.37,VWS V12.07,2013-03-11 20:24:00,
2013-03-11 15:25:00,25.6,24.4,29.59,NNW,338,0.0,3.0,95,0.02,,OVC047,0.37,VWS V12.07,2013-03-11 20:25:00,
2013-03-11 15:26:00,25.6,24.4,29.59,NNW,330,1.0,4.0,95,0.02,,OVC047,0.37,VWS V12.07,2013-03-11 20:26:00,
2013-03-11 15:27:00,25.6,24.4,29.59,NNE,13,3.0,4.0,95,0.02,,OVC047,0.37,VWS V12.07,2013-03-11 20:27:00,
2013-03-11 15:29:00,25.4,23.9,29.59,NNE,13,1.0,4.0,94,0.02,,OVC047,0.37,VWS V12.07,2013-03-11 20:29:00,
2013-03-11 15:30:00,25.4,24.2,29.60,North,355,0.0,4.0,95,0.02,,OVC047,0.37,VWS V12.07,2013-03-11 20:30:00,
2013-03-11 15:31:00,25.4,24.2,29.60,North,355,0.0,4.0,95,0.02,,OVC047,0.37,VWS V12.07,2013-03-11 20:31:00,
2013-03-11 15:32:00,25.4,24.2,29.60,North,355,0.0,4.0,95,0.02,,OVC047,0.37,VWS V12.07,2013-03-11 20:32:00,
2013-03-11 15:34:00,25.3,24.1,29.60,NNW,334,1.0,4.0,95,0.02,,OVC047,0.37,VWS V12.07,2013-03-11 20:34:00,
2013-03-11 15:36:00,25.3,24.1,29.60,NNE,15,2.0,4.0,95,0.01,,OVC047,0.37,VWS V12.07,2013-03-11 20:36:00,
2013-03-11 15:37:00,25.3,23.8,29.60,NW,319,1.0,3.0,94,0.01,,OVC047,0.37,VWS V12.07,2013-03-11 20:37:00,
2013-03-11 15:39:00,25.1,23.6,29.60,WNW,300,0.0,4.0,94,0.01,,OVC047,0.37,VWS V12.07,2013-03-11 20:39:00,
2013-03-11 15:40:00,23.9,22.2,29.60,North,356,1.0,6.0,93,0.01,,OVC023,0.38,VWS V12.07,2013-03-11 20:40:00,
2013-03-11 15:41:00,25.1,23.6,29.60,NW,306,1.0,4.0,94,0.01,,OVC047,0.37,VWS V12.07,2013-03-11 20:41:00,
2013-03-11 15:42:00,25.1,23.6,29.60,NNW,330,1.0,4.0,94,0.01,,OVC047,0.37,VWS V12.07,2013-03-11 20:42:00,
2013-03-11 15:44:00,25.0,23.5,29.60,NNW,343,2.0,5.0,94,0.01,,OVC047,0.37,VWS V12.07,2013-03-11 20:44:00,
2013-03-11 15:47:00,25.0,23.5,29.60,NE,39,1.0,5.0,94,0.01,,OVC047,0.37,VWS V12.07,2013-03-11 20:47:00,
2013-03-11 15:48:00,25.0,23.5,29.60,NE,39,0.0,5.0,94,0.01,,OVC047,0.37,VWS V12.07,2013-03-11 20:48:00,
2013-03-11 15:50:00,24.8,23.3,29.60,NNW,328,1.0,5.0,94,0.01,,OVC047,0.37,VWS V12.07,2013-03-11 20:50:00,
2013-03-11 15:52:00,24.8,23.3,29.60,NNW,335,0.0,5.0,94,0.01,,OVC023,0.38,VWS V12.07,2013-03-11 20:52:00,
2013-03-11 15:53:00,24.8,23.3,29.60,NNW,335,0.0,4.0,94,0.02,,OVC023,0.38,VWS V12.07,2013-03-11 20:53:00,
2013-03-11 15:55:00,24.8,23.3,29.60,NNW,335,1.0,4.0,94,0.02,,OVC023,0.38,VWS V12.07,2013-03-11 20:55:00,
2013-03-11 15:57:00,24.8,23.3,29.60,NNW,335,0.0,1.0,94,0.02,,,0.38,VWS V12.07,2013-03-11 20:57:00,
2013-03-11 15:58:00,24.8,23.3,29.60,NNW,335,0.0,2.0,94,0.02,,OVC023,0.38,VWS V12.07,2013-03-11 20:58:00,
2013-03-11 16:00:00,24.8,23.3,29.59,NW,319,0.0,2.0,94,0.02,,OVC023,0.38,VWS V12.07,2013-03-11 21:00:00,
2013-03-11 16:02:00,24.7,23.2,29.59,WSW,240,1.0,7.0,94,0.02,,OVC023,0.38,VWS V12.07,2013-03-11 21:02:00,
2013-03-11 16:03:00,24.7,23.2,29.59,WSW,240,1.0,7.0,94,0.02,,OVC023,0.38,VWS V12.07,2013-03-11 21:03:00,
2013-03-11 16:05:00,24.5,22.8,29.59,West,276,2.0,8.0,93,0.02,,OVC023,0.38,VWS V12.07,2013-03-11 21:05:00,
2013-03-11 16:08:00,24.4,22.7,29.59,North,352,3.0,11.0,93,0.01,,OVC023,0.38,VWS V12.07,2013-03-11 21:08:00,
2013-03-11 16:10:00,24.2,22.5,29.59,North,350,1.0,11.0,93,0.01,,OVC023,0.38,VWS V12.07,2013-03-11 21:10:00,
2013-03-11 16:13:00,24.1,22.4,29.59,West,266,1.0,11.0,93,0.01,,OVC023,0.38,VWS V12.07,2013-03-11 21:13:00,
2013-03-11 16:14:00,24.1,22.4,29.59,North,0,2.0,11.0,93,0.01,,OVC023,0.38,VWS V12.07,2013-03-11 21:14:00,
2013-03-11 16:15:00,24.1,22.4,29.60,North,356,2.0,11.0,93,0.01,,OVC023,0.38,VWS V12.07,2013-03-11 21:15:00,
2013-03-11 16:18:00,24.1,22.6,29.60,NW,326,1.0,2.0,94,0.01,,OVC023,0.38,VWS V12.07,2013-03-11 21:18:00,
2013-03-11 16:19:00,24.1,22.6,29.60,North,11,1.0,3.0,94,0.01,,OVC023,0.38,VWS V12.07,2013-03-11 21:19:00,
2013-03-11 16:20:00,24.1,22.6,29.60,NNE,14,1.0,6.0,94,0.01,,OVC023,0.38,VWS V12.07,2013-03-11 21:20:00,
2013-03-11 16:23:00,24.1,22.6,29.60,WNW,289,1.0,6.0,94,0.01,,OVC023,0.38,VWS V12.07,2013-03-11 21:23:00,
2013-03-11 16:24:00,23.9,22.4,29.60,WNW,300,1.0,6.0,94,0.01,,OVC023,0.38,VWS V12.07,2013-03-11 21:24:00,
2013-03-11 16:25:00,23.9,22.2,29.60,North,356,1.0,6.0,93,0.01,,OVC023,0.38,VWS V12.07,2013-03-11 21:25:00,
2013-03-11 16:26:00,23.9,22.2,29.60,WNW,290,3.0,6.0,93,0.01,,OVC023,0.38,VWS V12.07,2013-03-11 21:26:00,
2013-03-11 16:28:00,23.8,22.1,29.60,NW,311,0.0,6.0,93,0.01,,OVC023,0.38,VWS V12.07,2013-03-11 21:28:00,
2013-03-11 16:29:00,23.8,22.1,29.60,South,187,2.0,4.0,93,0.01,,OVC023,0.38,VWS V12.07,2013-03-11 21:29:00,
2013-03-11 16:30:00,23.6,21.9,29.60,North,352,0.0,4.0,93,0.01,,OVC023,0.38,VWS V12.07,2013-03-11 21:30:00,
2013-03-11 16:31:00,23.6,21.9,29.60,NNW,345,2.0,4.0,93,0.01,,OVC023,0.38,VWS V12.07,2013-03-11 21:31:00,
2013-03-11 16:33:00,23.6,21.9,29.60,WNW,282,2.0,4.0,93,0.01,,OVC023,0.38,VWS V12.07,2013-03-11 21:33:00,
2013-03-11 16:34:00,23.5,21.5,29.60,NNW,327,0.0,4.0,92,0.01,,OVC023,0.38,VWS V12.07,2013-03-11 21:34:00,
2013-03-11 16:35:00,23.5,21.5,29.60,NNE,29,0.0,4.0,92,0.01,,OVC023,0.38,VWS V12.07,2013-03-11 21:35:00,
2013-03-11 16:36:00,23.3,21.3,29.60,NW,309,2.0,4.0,92,0.01,,OVC023,0.38,VWS V12.07,2013-03-11 21:36:00,
2013-03-11 16:39:00,23.3,21.3,29.60,NNE,13,4.0,0.0,92,0.01,,,0.38,VWS V12.07,2013-03-11 21:39:00,
2013-03-11 16:40:00,23.2,21.2,29.60,WNW,297,3.0,10.0,92,0.01,,,0.38,VWS V12.07,2013-03-11 21:40:00,
2013-03-11 16:41:00,23.2,21.2,29.60,North,356,1.0,10.0,92,0.01,,,0.38,VWS V12.07,2013-03-11 21:41:00,
2013-03-11 16:42:00,23.2,21.2,29.60,North,356,1.0,10.0,92,0.01,,,0.38,VWS V12.07,2013-03-11 21:42:00,
2013-03-11 16:44:00,23.2,21.2,29.60,North,8,1.0,10.0,92,0.01,,,0.38,VWS V12.07,2013-03-11 21:44:00,
2013-03-11 16:45:00,23.2,21.2,29.60,North,8,0.0,10.0,92,0.01,,,0.38,VWS V12.07,2013-03-11 21:45:00,
2013-03-11 16:46:00,23.2,21.2,29.60,NNW,337,2.0,10.0,92,0.01,,,0.38,VWS V12.07,2013-03-11 21:46:00,
2013-03-11 16:47:00,23.2,21.2,29.60,NW,319,3.0,3.0,92,0.01,,,0.38,VWS V12.07,2013-03-11 21:47:00,
2013-03-11 16:49:00,23.0,21.0,29.60,NNE,25,2.0,3.0,92,0.01,,,0.38,VWS V12.07,2013-03-11 21:49:00,
2013-03-11 16:50:00,23.0,21.0,29.60,East,86,1.0,3.0,92,0.01,,,0.38,VWS V12.07,2013-03-11 21:50:00,
2013-03-11 16:52:00,23.0,21.0,29.60,North,356,2.0,3.0,92,0.01,,,0.38,VWS V12.07,2013-03-11 21:52:00,
2013-03-11 16:55:00,22.9,20.9,29.60,NNW,340,0.0,5.0,92,0.01,,,0.38,VWS V12.07,2013-03-11 21:55:00,
2013-03-11 16:57:00,22.9,20.9,29.60,NNW,347,2.0,7.0,92,0.00,,,0.38,VWS V12.07,2013-03-11 21:57:00,
2013-03-11 16:58:00,22.7,20.7,29.60,NNW,339,1.0,7.0,92,0.00,,,0.38,VWS V12.07,2013-03-11 21:58:00,
2013-03-11 17:00:00,22.7,20.7,29.60,NE,40,1.0,7.0,92,0.00,,,0.38,VWS V12.07,2013-03-11 22:00:00,
2013-03-11 17:03:00,22.5,20.5,29.60,NW,313,3.0,7.0,92,0.00,,,0.38,VWS V12.07,2013-03-11 22:03:00,
2013-03-11 17:05:00,22.4,20.4,29.60,NNW,342,1.0,9.0,92,0.00,,,0.38,VWS V12.07,2013-03-11 22:05:00,
2013-03-11 17:08:00,22.4,20.4,29.60,North,353,0.0,5.0,92,0.00,,,0.38,VWS V12.07,2013-03-11 22:08:00,
2013-03-11 17:10:00,22.2,20.2,29.60,WNW,298,0.0,5.0,92,0.00,,,0.38,VWS V12.07,2013-03-11 22:10:00,
2013-03-11 17:11:00,22.2,20.2,29.60,NNE,20,0.0,5.0,92,0.00,,,0.38,VWS V12.07,2013-03-11 22:11:00,
2013-03-11 17:13:00,22.2,20.2,29.60,NNE,22,0.0,5.0,92,0.00,,,0.38,VWS V12.07,2013-03-11 22:13:00,
2013-03-11 17:14:00,22.2,20.2,29.60,NNE,22,0.0,5.0,92,0.00,,,0.38,VWS V12.07,2013-03-11 22:14:00,
2013-03-11 17:15:00,22.2,20.2,29.60,NNE,21,2.0,5.0,92,0.00,,,0.38,VWS V12.07,2013-03-11 22:15:00,
2013-03-11 17:17:00,22.4,20.4,29.60,NNE,21,1.0,5.0,92,0.00,,,0.38,VWS V12.07,2013-03-11 22:17:00,
2013-03-11 17:19:00,22.4,20.4,29.60,WSW,250,0.0,5.0,92,0.00,,,0.38,VWS V12.07,2013-03-11 22:19:00,
2013-03-11 17:20:00,22.4,20.4,29.60,North,4,0.0,5.0,92,0.00,,,0.38,VWS V12.07,2013-03-11 22:20:00,
2013-03-11 17:22:00,22.4,20.4,29.60,NE,49,1.0,5.0,92,0.00,,,0.38,VWS V12.07,2013-03-11 22:22:00,
2013-03-11 17:24:00,22.2,20.2,29.60,NW,319,3.0,6.0,92,0.00,,,0.38,VWS V12.07,2013-03-11 22:24:00,
2013-03-11 17:25:00,22.2,20.2,29.60,North,353,2.0,6.0,92,0.00,,,0.38,VWS V12.07,2013-03-11 22:25:00,
2013-03-11 17:27:00,22.1,19.9,29.60,North,11,6.0,13.0,91,0.00,,,0.38,VWS V12.07,2013-03-11 22:27:00,
2013-03-11 17:29:00,21.9,19.9,29.60,NNE,16,0.0,13.0,92,0.00,,,0.38,VWS V12.07,2013-03-11 22:29:00,
2013-03-11 17:30:00,21.9,19.9,29.60,NNE,16,1.0,13.0,92,0.00,,,0.38,VWS V12.07,2013-03-11 22:30:00,
2013-03-11 17:31:00,21.9,19.9,29.60,NW,311,2.0,13.0,92,0.00,,,0.38,VWS V12.07,2013-03-11 22:31:00,
2013-03-11 17:32:00,21.9,19.7,29.60,WNW,290,2.0,13.0,91,0.00,,,0.38,VWS V12.07,2013-03-11 22:32:00,
2013-03-11 17:34:00,21.8,19.8,29.60,NNW,337,1.0,13.0,92,0.00,,,0.38,VWS V12.07,2013-03-11 22:34:00,
2013-03-11 17:35:00,21.8,19.8,29.60,ENE,72,3.0,13.0,92,0.00,,,0.38,VWS V12.07,2013-03-11 22:35:00,
2013-03-11 17:36:00,21.8,19.8,29.60,North,354,4.0,13.0,92,0.00,,,0.38,VWS V12.07,2013-03-11 22:36:00,
2013-03-11 17:37:00,21.8,19.8,29.60,North,358,0.0,4.0,92,0.00,,,0.38,VWS V12.07,2013-03-11 22:37:00,
2013-03-11 17:39:00,21.8,19.8,29.60,NNW,334,0.0,4.0,92,0.00,,,0.38,VWS V12.07,2013-03-11 22:39:00,
2013-03-11 17:40:00,21.8,19.8,29.60,NNW,334,0.0,4.0,92,0.00,,,0.38,VWS V12.07,2013-03-11 22:40:00,
2013-03-11 17:41:00,21.8,19.8,29.60,NNW,334,0.0,4.0,92,0.00,,,0.38,VWS V12.07,2013-03-11 22:41:00,
2013-03-11 17:42:00,21.8,19.8,29.60,NNW,334,0.0,4.0,92,0.00,,,0.38,VWS V12.07,2013-03-11 22:42:00,
2013-03-11 17:44:00,21.8,19.8,29.60,NNW,334,0.0,4.0,92,0.00,,,0.38,VWS V12.07,2013-03-11 22:44:00,
2013-03-11 17:46:00,21.8,19.8,29.60,NNW,335,2.0,4.0,92,0.00,,,0.38,VWS V12.07,2013-03-11 22:46:00,
2013-03-11 17:47:00,21.8,19.8,29.60,North,11,2.0,4.0,92,0.00,,,0.38,VWS V12.07,2013-03-11 22:47:00,
2013-03-11 17:50:00,21.8,19.8,29.60,ENE,60,0.0,4.0,92,0.00,,,0.38,VWS V12.07,2013-03-11 22:50:00,
2013-03-11 17:52:00,21.6,19.6,29.60,ENE,60,0.0,4.0,92,0.00,,,0.38,VWS V12.07,2013-03-11 22:52:00,
2013-03-11 17:53:00,21.8,19.8,29.60,ENE,60,0.0,4.0,92,0.00,,,0.38,VWS V12.07,2013-03-11 22:53:00,
2013-03-11 17:55:00,21.6,19.6,29.60,WNW,297,1.0,4.0,92,0.00,,,0.38,VWS V12.07,2013-03-11 22:55:00,
2013-03-11 17:57:00,21.6,19.6,29.60,NNE,28,1.0,2.0,92,0.00,,,0.38,VWS V12.07,2013-03-11 22:57:00,
2013-03-11 17:58:00,21.6,19.6,29.60,NW,306,0.0,2.0,92,0.00,,,0.38,VWS V12.07,2013-03-11 22:58:00,
2013-03-11 18:00:00,21.6,19.6,29.61,North,358,2.0,4.0,92,0.00,,,0.38,VWS V12.07,2013-03-11 23:00:00,
2013-03-11 18:02:00,21.4,19.4,29.61,North,356,0.0,4.0,92,0.00,,,0.38,VWS V12.07,2013-03-11 23:02:00,
2013-03-11 18:03:00,21.4,19.4,29.61,North,356,0.0,4.0,92,0.00,,,0.38,VWS V12.07,2013-03-11 23:03:00,
2013-03-11 18:06:00,21.3,19.3,29.61,North,356,0.0,4.0,92,0.00,,,0.38,VWS V12.07,2013-03-11 23:06:00,
2013-03-11 18:07:00,21.3,19.3,29.61,North,356,0.0,4.0,92,0.00,,,0.38,VWS V12.07,2013-03-11 23:07:00,
2013-03-11 18:08:00,21.3,19.3,29.61,North,356,0.0,4.0,92,0.00,,,0.38,VWS V12.07,2013-03-11 23:08:00,
2013-03-11 18:09:00,21.3,19.3,29.61,West,270,0.0,1.0,92,0.00,,,0.38,VWS V12.07,2013-03-11 23:09:00,
2013-03-11 18:10:00,20.3,18.4,29.62,NNW,348,0.0,2.0,92,0.00,,,0.38,VWS V12.07,2013-03-11 23:10:00,
2013-03-11 18:13:00,21.3,19.3,29.61,WSW,253,0.0,4.0,92,0.00,,,0.38,VWS V12.07,2013-03-11 23:13:00,
2013-03-11 18:14:00,21.3,19.3,29.61,NE,48,1.0,4.0,92,0.00,,,0.38,VWS V12.07,2013-03-11 23:14:00,
2013-03-11 18:18:00,21.1,19.1,29.61,WNW,283,2.0,3.0,92,0.00,,,0.38,VWS V12.07,2013-03-11 23:18:00,
2013-03-11 18:19:00,21.1,19.1,29.61,NNE,31,0.0,3.0,92,0.00,,,0.38,VWS V12.07,2013-03-11 23:19:00,
2013-03-11 18:20:00,20.2,18.2,29.63,WNW,292,0.0,2.0,92,0.00,,,0.38,VWS V12.07,2013-03-11 23:20:00,
2013-03-11 18:23:00,21.0,19.0,29.61,NE,48,1.0,3.0,92,0.00,,,0.38,VWS V12.07,2013-03-11 23:23:00,
2013-03-11 18:24:00,21.0,19.0,29.61,NNW,343,0.0,3.0,92,0.00,,,0.38,VWS V12.07,2013-03-11 23:24:00,
2013-03-11 18:25:00,21.0,19.0,29.61,WNW,284,0.0,3.0,92,0.00,,,0.38,VWS V12.07,2013-03-11 23:25:00,
2013-03-11 18:28:00,21.0,19.0,29.61,NNE,24,0.0,4.0,92,0.00,,,0.38,VWS V12.07,2013-03-11 23:28:00,
2013-03-11 18:29:00,21.0,19.0,29.61,NNE,24,1.0,4.0,92,0.00,,,0.38,VWS V12.07,2013-03-11 23:29:00,
2013-03-11 18:30:00,21.0,19.0,29.61,NNE,24,0.0,4.0,92,0.00,,,0.38,VWS V12.07,2013-03-11 23:30:00,
2013-03-11 18:33:00,20.8,18.9,29.61,NW,318,0.0,4.0,92,0.00,,,0.38,VWS V12.07,2013-03-11 23:33:00,
2013-03-11 18:34:00,20.8,18.9,29.61,NW,318,0.0,4.0,92,0.00,,,0.38,VWS V12.07,2013-03-11 23:34:00,
2013-03-11 18:35:00,20.8,18.9,29.61,NNW,328,0.0,4.0,92,0.00,,,0.38,VWS V12.07,2013-03-11 23:35:00,
2013-03-11 18:38:00,20.8,18.9,29.61,NNE,20,3.0,4.0,92,0.00,,,0.38,VWS V12.07,2013-03-11 23:38:00,
2013-03-11 18:39:00,20.8,18.9,29.61,NNE,27,1.0,3.0,92,0.00,,,0.38,VWS V12.07,2013-03-11 23:39:00,
2013-03-11 18:40:00,19.9,18.0,29.63,NE,41,0.0,6.0,92,0.00,,,0.38,VWS V12.07,2013-03-11 23:40:00,
2013-03-11 18:41:00,20.6,18.6,29.61,NNE,27,0.0,3.0,92,0.00,,,0.38,VWS V12.07,2013-03-11 23:41:00,
2013-03-11 18:43:00,20.6,18.6,29.61,NW,311,1.0,4.0,92,0.00,,,0.38,VWS V12.07,2013-03-11 23:43:00,
2013-03-11 18:44:00,20.6,18.6,29.61,NW,311,0.0,4.0,92,0.00,,,0.38,VWS V12.07,2013-03-11 23:44:00,
2013-03-11 18:47:00,20.5,18.5,29.62,NW,311,0.0,4.0,92,0.00,,,0.38,VWS V12.07,2013-03-11 23:47:00,
2013-03-11 18:49:00,20.5,18.5,29.62,North,358,1.0,4.0,92,0.00,,,0.38,VWS V12.07,2013-03-11 23:49:00,
2013-03-11 18:50:00,19.7,17.5,29.63,East,80,0.0,3.0,91,0.00,,,0.38,VWS V12.07,2013-03-11 23:50:00,
2013-03-11 18:52:00,20.5,18.5,29.62,North,349,1.0,4.0,92,0.00,,,0.38,VWS V12.07,2013-03-11 23:52:00,
2013-03-11 18:54:00,20.5,18.5,29.62,NNW,347,0.0,2.0,92,0.00,,,0.38,VWS V12.07,2013-03-11 23:54:00,
2013-03-11 18:55:00,20.5,18.5,29.62,NNW,347,0.0,2.0,92,0.00,,,0.38,VWS V12.07,2013-03-11 23:55:00,
2013-03-11 18:57:00,20.3,18.4,29.62,NNW,348,0.0,2.0,92,0.00,,,0.38,VWS V12.07,2013-03-11 23:57:00,
2013-03-11 18:59:00,20.3,18.4,29.63,NNW,346,1.0,2.0,92,0.00,,,0.38,VWS V12.07,2013-03-11 23:59:00,
2013-03-11 19:00:00,20.3,18.4,29.63,NNW,346,0.0,2.0,92,0.00,,,0.38,VWS V12.07,2013-03-12 00:00:00,
2013-03-11 19:02:00,20.3,18.4,29.63,NNW,346,1.0,2.0,92,0.00,,,0.38,VWS V12.07,2013-03-12 00:02:00,
2013-03-11 19:04:00,20.2,18.2,29.63,WNW,292,1.0,2.0,92,0.00,,,0.38,VWS V12.07,2013-03-12 00:04:00,
2013-03-11 19:05:00,20.2,18.2,29.63,WNW,292,0.0,2.0,92,0.00,,,0.38,VWS V12.07,2013-03-12 00:05:00,
2013-03-11 19:08:00,20.2,18.2,29.63,WNW,292,1.0,2.0,92,0.00,,,0.38,VWS V12.07,2013-03-12 00:08:00,
2013-03-11 19:09:00,20.2,18.2,29.63,WNW,292,0.0,1.0,92,0.00,,,0.38,VWS V12.07,2013-03-12 00:09:00,
2013-03-11 19:10:00,20.2,18.2,29.63,NNE,26,1.0,2.0,92,0.00,,,0.38,VWS V12.07,2013-03-12 00:10:00,
2013-03-11 19:11:00,20.2,18.2,29.63,NNW,328,0.0,4.0,92,0.00,,,0.38,VWS V12.07,2013-03-12 00:11:00,
2013-03-11 19:13:00,20.0,18.0,29.63,NNW,332,0.0,4.0,92,0.00,,,0.38,VWS V12.07,2013-03-12 00:13:00,
2013-03-11 19:16:00,20.0,18.0,29.63,NNW,340,0.0,0.0,92,0.00,,,0.38,VWS V12.07,2013-03-12 00:16:00,
2013-03-11 19:18:00,20.0,18.0,29.63,NNW,348,1.0,2.0,92,0.00,,,0.38,VWS V12.07,2013-03-12 00:18:00,
2013-03-11 19:20:00,19.2,17.0,29.65,NW,319,2.0,3.0,91,0.01,,,0.39,VWS V12.07,2013-03-12 00:20:00,
2013-03-11 19:21:00,19.9,18.0,29.63,NNW,331,3.0,6.0,92,0.00,,,0.38,VWS V12.07,2013-03-12 00:21:00,
2013-03-11 19:22:00,19.9,18.0,29.63,NW,324,2.0,6.0,92,0.00,,,0.38,VWS V12.07,2013-03-12 00:22:00,
2013-03-11 19:23:00,19.9,18.0,29.63,NE,41,0.0,6.0,92,0.00,,,0.38,VWS V12.07,2013-03-12 00:23:00,
2013-03-11 19:27:00,19.9,18.0,29.63,NE,40,0.0,6.0,92,0.00,,,0.38,VWS V12.07,2013-03-12 00:27:00,
2013-03-11 19:28:00,19.7,17.8,29.63,North,354,1.0,6.0,92,0.00,,,0.38,VWS V12.07,2013-03-12 00:28:00,
2013-03-11 19:30:00,19.1,16.9,29.65,NNE,12,1.0,4.0,91,0.01,,,0.39,VWS V12.07,2013-03-12 00:30:00,
2013-03-11 19:32:00,19.7,17.5,29.63,North,352,0.0,3.0,91,0.00,,,0.38,VWS V12.07,2013-03-12 00:32:00,
2013-03-11 19:33:00,19.7,17.5,29.63,North,352,0.0,3.0,91,0.00,,,0.38,VWS V12.07,2013-03-12 00:33:00,
2013-03-11 19:34:00,19.7,17.5,29.63,North,352,1.0,3.0,91,0.00,,,0.38,VWS V12.07,2013-03-12 00:34:00,
2013-03-11 19:37:00,19.5,17.3,29.63,North,4,1.0,3.0,91,0.00,,,0.38,VWS V12.07,2013-03-12 00:37:00,
2013-03-11 19:38:00,19.5,17.3,29.63,NW,321,2.0,3.0,91,0.00,,,0.38,VWS V12.07,2013-03-12 00:38:00,
2013-03-11 19:39:00,19.5,17.3,29.63,South,184,3.0,3.0,91,0.00,,,0.38,VWS V12.07,2013-03-12 00:39:00,
2013-03-11 19:40:00,19.1,16.7,29.65,NW,320,0.0,3.0,90,0.01,,,0.39,VWS V12.07,2013-03-12 00:40:00,
2013-03-11 19:42:00,19.4,17.2,29.63,NNW,337,2.0,3.0,91,0.00,,,0.38,VWS V12.07,2013-03-12 00:42:00,
2013-03-11 19:44:00,19.4,17.2,29.63,NNW,337,0.0,3.0,91,0.00,,,0.38,VWS V12.07,2013-03-12 00:44:00,
2013-03-11 19:47:00,19.4,17.0,29.64,NE,56,3.0,4.0,90,0.00,,,0.38,VWS V12.07,2013-03-12 00:47:00,
2013-03-11 19:49:00,19.2,16.8,29.64,NNW,332,1.0,4.0,90,0.00,,,0.38,VWS V12.07,2013-03-12 00:49:00,
2013-03-11 19:50:00,18.9,16.5,29.66,NE,38,0.0,2.0,90,0.01,,OVC017,0.39,VWS V12.07,2013-03-12 00:50:00,
2013-03-11 19:53:00,19.2,16.8,29.64,NNW,335,2.0,5.0,90,0.00,,,0.38,VWS V12.07,2013-03-12 00:53:00,
2013-03-11 19:54:00,19.2,16.8,29.64,North,0,0.0,5.0,90,0.01,,,0.39,VWS V12.07,2013-03-12 00:54:00,
2013-03-11 19:58:00,19.2,17.0,29.64,NW,306,0.0,2.0,91,0.01,,,0.39,VWS V12.07,2013-03-12 00:58:00,
2013-03-11 19:59:00,19.2,17.0,29.65,NW,306,0.0,2.0,91,0.01,,,0.39,VWS V12.07,2013-03-12 00:59:00,
2013-03-11 20:00:00,19.2,17.0,29.65,NW,306,0.0,2.0,91,0.01,,,0.39,VWS V12.07,2013-03-12 01:00:00,
2013-03-11 20:03:00,19.2,17.0,29.65,NW,306,0.0,2.0,91,0.01,,,0.39,VWS V12.07,2013-03-12 01:03:00,
2013-03-11 20:05:00,19.2,17.0,29.65,NW,306,0.0,2.0,91,0.01,,,0.39,VWS V12.07,2013-03-12 01:05:00,
2013-03-11 20:08:00,19.1,16.9,29.65,West,281,2.0,4.0,91,0.01,,,0.39,VWS V12.07,2013-03-12 01:08:00,
2013-03-11 20:10:00,19.1,16.9,29.65,NNE,27,0.0,4.0,91,0.01,,,0.39,VWS V12.07,2013-03-12 01:10:00,
2013-03-11 20:13:00,19.1,16.9,29.65,NNE,27,0.0,4.0,91,0.01,,,0.39,VWS V12.07,2013-03-12 01:13:00,
2013-03-11 20:14:00,19.1,16.9,29.65,North,358,0.0,4.0,91,0.01,,,0.39,VWS V12.07,2013-03-12 01:14:00,
2013-03-11 20:15:00,19.1,16.9,29.65,NNE,12,2.0,4.0,91,0.01,,,0.39,VWS V12.07,2013-03-12 01:15:00,
2013-03-11 20:19:00,19.1,16.7,29.65,North,0,0.0,3.0,90,0.01,,,0.39,VWS V12.07,2013-03-12 01:19:00,
2013-03-11 20:20:00,19.1,16.9,29.65,SE,146,0.0,3.0,91,0.01,,,0.39,VWS V12.07,2013-03-12 01:20:00,
2013-03-11 20:21:00,19.1,16.9,29.65,SE,146,0.0,3.0,91,0.01,,,0.39,VWS V12.07,2013-03-12 01:21:00,
2013-03-11 20:24:00,19.1,16.7,29.65,NW,320,0.0,3.0,90,0.01,,,0.39,VWS V12.07,2013-03-12 01:24:00,
2013-03-11 20:26:00,18.9,16.5,29.65,NW,320,0.0,3.0,90,0.01,,,0.39,VWS V12.07,2013-03-12 01:26:00,
2013-03-11 20:29:00,18.9,16.5,29.65,NE,38,0.0,2.0,90,0.01,,,0.39,VWS V12.07,2013-03-12 01:29:00,
2013-03-11 20:30:00,18.6,16.2,29.68,West,259,0.0,2.0,90,0.00,,,0.39,VWS V12.07,2013-03-12 01:30:00,
2013-03-11 20:31:00,18.9,16.5,29.66,NE,38,0.0,2.0,90,0.01,,,0.39,VWS V12.07,2013-03-12 01:31:00,
2013-03-11 20:34:00,18.9,16.5,29.66,NE,38,0.0,2.0,90,0.01,,OVC017,0.39,VWS V12.07,2013-03-12 01:34:00,
2013-03-11 20:37:00,18.9,16.5,29.66,NE,38,0.0,0.0,90,0.01,,OVC017,0.39,VWS V12.07,2013-03-12 01:37:00,
2013-03-11 20:39:00,18.9,16.7,29.66,NE,38,0.0,0.0,91,0.01,,OVC017,0.39,VWS V12.07,2013-03-12 01:39:00,
2013-03-11 20:40:00,18.9,16.7,29.66,NE,38,0.0,0.0,91,0.01,,OVC017,0.39,VWS V12.07,2013-03-12 01:40:00,
2013-03-11 20:42:00,18.9,16.7,29.66,NE,38,0.0,0.0,91,0.01,,OVC017,0.39,VWS V12.07,2013-03-12 01:42:00,
2013-03-11 20:44:00,18.9,16.7,29.67,NE,38,0.0,1.0,91,0.01,,OVC017,0.39,VWS V12.07,2013-03-12 01:44:00,
2013-03-11 20:45:00,18.9,16.7,29.67,NE,38,0.0,1.0,91,0.01,,OVC017,0.39,VWS V12.07,2013-03-12 01:45:00,
2013-03-11 20:47:00,18.9,16.7,29.67,NE,38,0.0,0.0,91,0.01,,OVC017,0.39,VWS V12.07,2013-03-12 01:47:00,
2013-03-11 20:49:00,18.9,16.7,29.67,North,356,0.0,2.0,91,0.01,,,0.39,VWS V12.07,2013-03-12 01:49:00,
2013-03-11 20:50:00,18.9,16.7,29.67,North,354,1.0,2.0,91,0.01,,,0.39,VWS V12.07,2013-03-12 01:50:00,
2013-03-11 20:52:00,18.9,16.7,29.67,NW,307,0.0,2.0,91,0.01,,,0.39,VWS V12.07,2013-03-12 01:52:00,
2013-03-11 20:53:00,18.8,16.6,29.67,NW,307,0.0,2.0,91,0.01,,,0.39,VWS V12.07,2013-03-12 01:53:00,
2013-03-11 20:54:00,18.8,16.6,29.67,NW,307,0.0,2.0,91,0.01,,,0.39,VWS V12.07,2013-03-12 01:54:00,
2013-03-11 20:56:00,18.8,16.6,29.67,NW,307,0.0,2.0,91,0.01,,,0.39,VWS V12.07,2013-03-12 01:56:00,
2013-03-11 20:57:00,18.8,16.6,29.67,NW,307,0.0,2.0,91,0.00,,,0.39,VWS V12.07,2013-03-12 01:57:00,
2013-03-11 20:58:00,18.8,16.6,29.67,NW,307,0.0,2.0,91,0.00,,,0.39,VWS V12.07,2013-03-12 01:58:00,
2013-03-11 20:59:00,18.8,16.6,29.68,NW,307,0.0,0.0,91,0.00,,,0.39,VWS V12.07,2013-03-12 01:59:00,
2013-03-11 21:00:00,18.6,16.2,29.69,North,351,0.0,2.0,90,0.00,,,0.39,VWS V12.07,2013-03-12 02:00:00,
2013-03-11 21:01:00,18.8,16.6,29.68,NW,307,0.0,1.0,91,0.00,,,0.39,VWS V12.07,2013-03-12 02:01:00,
2013-03-11 21:03:00,18.8,16.6,29.68,NW,325,1.0,2.0,91,0.00,,,0.39,VWS V12.07,2013-03-12 02:03:00,
2013-03-11 21:04:00,18.8,16.6,29.68,North,354,1.0,2.0,91,0.00,,,0.39,VWS V12.07,2013-03-12 02:04:00,
2013-03-11 21:06:00,18.8,16.6,29.68,NNE,28,0.0,2.0,91,0.00,,,0.39,VWS V12.07,2013-03-12 02:06:00,
2013-03-11 21:08:00,18.8,16.6,29.68,NNW,343,0.0,2.0,91,0.00,,,0.39,VWS V12.07,2013-03-12 02:08:00,
2013-03-11 21:09:00,18.6,16.4,29.68,NNW,343,0.0,2.0,91,0.00,,,0.39,VWS V12.07,2013-03-12 02:09:00,
2013-03-11 21:10:00,18.6,16.4,29.68,NNW,343,0.0,2.0,91,0.00,,,0.39,VWS V12.07,2013-03-12 02:10:00,
2013-03-11 21:12:00,18.6,16.4,29.68,NNW,343,0.0,2.0,91,0.00,,,0.39,VWS V12.07,2013-03-12 02:12:00,
2013-03-11 21:13:00,18.6,16.4,29.68,NNW,330,0.0,2.0,91,0.00,,,0.39,VWS V12.07,2013-03-12 02:13:00,
2013-03-11 21:14:00,18.6,16.4,29.68,West,259,0.0,2.0,91,0.00,,,0.39,VWS V12.07,2013-03-12 02:14:00,
2013-03-11 21:15:00,18.6,16.2,29.68,West,259,0.0,2.0,90,0.00,,,0.39,VWS V12.07,2013-03-12 02:15:00,
2013-03-11 21:17:00,18.6,16.2,29.68,West,259,0.0,2.0,90,0.00,,,0.39,VWS V12.07,2013-03-12 02:17:00,
2013-03-11 21:19:00,18.6,16.2,29.68,West,259,0.0,2.0,90,0.00,,,0.39,VWS V12.07,2013-03-12 02:19:00,
2013-03-11 21:20:00,18.6,16.2,29.68,West,259,0.0,2.0,90,0.00,,,0.39,VWS V12.07,2013-03-12 02:20:00,
2013-03-11 21:22:00,18.6,16.2,29.68,West,259,0.0,2.0,90,0.00,,,0.39,VWS V12.07,2013-03-12 02:22:00,
2013-03-11 21:24:00,18.6,16.4,29.68,West,259,0.0,0.0,91,0.00,,,0.39,VWS V12.07,2013-03-12 02:24:00,
2013-03-11 21:25:00,18.6,16.4,29.68,West,259,0.0,0.0,91,0.00,,,0.39,VWS V12.07,2013-03-12 02:25:00,
2013-03-11 21:28:00,18.6,16.4,29.68,West,259,0.0,0.0,91,0.00,,,0.39,VWS V12.07,2013-03-12 02:28:00,
2013-03-11 21:29:00,18.6,16.4,29.68,West,259,0.0,0.0,91,0.00,,,0.39,VWS V12.07,2013-03-12 02:29:00,
2013-03-11 21:30:00,18.6,16.4,29.68,West,259,0.0,0.0,91,0.00,,,0.39,VWS V12.07,2013-03-12 02:30:00,
2013-03-11 21:33:00,18.6,16.4,29.68,West,259,0.0,1.0,91,0.00,,,0.39,VWS V12.07,2013-03-12 02:33:00,
2013-03-11 21:34:00,18.6,16.4,29.68,West,259,0.0,1.0,91,0.00,,,0.39,VWS V12.07,2013-03-12 02:34:00,
2013-03-11 21:36:00,18.6,16.4,29.68,West,259,0.0,2.0,91,0.00,,,0.39,VWS V12.07,2013-03-12 02:36:00,
2013-03-11 21:39:00,18.6,16.4,29.68,West,259,0.0,0.0,91,0.00,,,0.39,VWS V12.07,2013-03-12 02:39:00,
2013-03-11 21:40:00,18.4,16.2,29.69,North,351,0.0,1.0,91,0.00,,,0.39,VWS V12.07,2013-03-12 02:40:00,
2013-03-11 21:41:00,18.6,16.4,29.68,North,0,1.0,2.0,91,0.00,,,0.39,VWS V12.07,2013-03-12 02:41:00,
2013-03-11 21:42:00,18.6,16.4,29.68,NW,321,1.0,2.0,91,0.00,,,0.39,VWS V12.07,2013-03-12 02:42:00,
2013-03-11 21:44:00,18.6,16.2,29.68,North,351,0.0,2.0,90,0.00,,,0.39,VWS V12.07,2013-03-12 02:44:00,
2013-03-11 21:45:00,18.6,16.2,29.69,North,351,0.0,2.0,90,0.00,,,0.39,VWS V12.07,2013-03-12 02:45:00,
2013-03-11 21:47:00,18.6,16.2,29.69,North,351,0.0,2.0,90,0.00,,,0.39,VWS V12.07,2013-03-12 02:47:00,
2013-03-11 21:49:00,18.6,16.2,29.69,North,351,0.0,0.0,90,0.00,,,0.39,VWS V12.07,2013-03-12 02:49:00,
2013-03-11 21:50:00,18.6,16.2,29.69,North,351,0.0,0.0,90,0.00,,,0.39,VWS V12.07,2013-03-12 02:50:00,
2013-03-11 21:52:00,18.6,16.4,29.69,North,351,0.0,0.0,91,0.00,,,0.39,VWS V12.07,2013-03-12 02:52:00,
2013-03-11 21:54:00,18.6,16.2,29.69,North,351,1.0,2.0,90,0.00,,,0.39,VWS V12.07,2013-03-12 02:54:00,
2013-03-11 21:55:00,18.6,16.2,29.69,North,351,0.0,2.0,90,0.00,,,0.39,VWS V12.07,2013-03-12 02:55:00,
2013-03-11 21:57:00,18.6,16.4,29.69,North,351,0.0,2.0,91,0.00,,,0.39,VWS V12.07,2013-03-12 02:57:00,
2013-03-11 21:58:00,18.6,16.4,29.69,North,351,0.0,2.0,91,0.00,,,0.39,VWS V12.07,2013-03-12 02:58:00,
2013-03-11 22:00:00,18.6,16.2,29.69,North,351,0.0,1.0,90,0.00,,,0.39,VWS V12.07,2013-03-12 03:00:00,
2013-03-11 22:02:00,18.6,16.4,29.69,North,351,0.0,1.0,91,0.00,,,0.39,VWS V12.07,2013-03-12 03:02:00,
2013-03-11 22:03:00,18.4,16.2,29.69,North,351,0.0,1.0,91,0.00,,,0.39,VWS V12.07,2013-03-12 03:03:00,
2013-03-11 22:05:00,18.4,16.2,29.69,North,351,0.0,1.0,91,0.00,,,0.39,VWS V12.07,2013-03-12 03:05:00,
2013-03-11 22:08:00,18.4,16.2,29.69,North,351,0.0,1.0,91,0.00,,,0.39,VWS V12.07,2013-03-12 03:08:00,
2013-03-11 22:10:00,18.4,16.2,29.69,North,351,0.0,1.0,91,0.00,,,0.39,VWS V12.07,2013-03-12 03:10:00,
2013-03-11 22:11:00,18.4,16.2,29.69,North,351,0.0,1.0,91,0.00,,,0.39,VWS V12.07,2013-03-12 03:11:00,
2013-03-11 22:13:00,18.4,16.2,29.69,North,351,0.0,1.0,91,0.00,,,0.39,VWS V12.07,2013-03-12 03:13:00,
2013-03-11 22:15:00,18.4,16.2,29.69,North,351,0.0,1.0,91,0.00,,,0.39,VWS V12.07,2013-03-12 03:15:00,
2013-03-11 22:16:00,18.4,16.2,29.69,North,351,0.0,1.0,91,0.00,,,0.39,VWS V12.07,2013-03-12 03:16:00,
2013-03-11 22:18:00,18.4,16.2,29.69,North,351,0.0,1.0,91,0.00,,,0.39,VWS V12.07,2013-03-12 03:18:00,
2013-03-11 22:20:00,18.1,15.9,29.68,North,351,0.0,2.0,91,0.00,,,0.39,VWS V12.07,2013-03-12 03:20:00,
2013-03-11 22:21:00,18.4,16.2,29.69,North,351,0.0,1.0,91,0.00,,,0.39,VWS V12.07,2013-03-12 03:21:00,
2013-03-11 22:22:00,18.4,16.2,29.69,North,351,0.0,1.0,91,0.00,,,0.39,VWS V12.07,2013-03-12 03:22:00,
2013-03-11 22:23:00,18.4,16.2,29.69,North,351,0.0,1.0,91,0.00,,,0.39,VWS V12.07,2013-03-12 03:23:00,
2013-03-11 22:26:00,18.4,16.2,29.69,North,351,0.0,1.0,91,0.00,,,0.39,VWS V12.07,2013-03-12 03:26:00,
2013-03-11 22:27:00,18.4,16.2,29.69,North,351,0.0,0.0,91,0.00,,,0.39,VWS V12.07,2013-03-12 03:27:00,
2013-03-11 22:28:00,18.4,16.2,29.69,North,351,0.0,0.0,91,0.00,,,0.39,VWS V12.07,2013-03-12 03:28:00,
2013-03-11 22:29:00,18.4,16.2,29.69,North,351,0.0,0.0,91,0.00,,,0.39,VWS V12.07,2013-03-12 03:29:00,
2013-03-11 22:30:00,18.1,15.9,29.68,North,351,0.0,0.0,91,0.00,,,0.39,VWS V12.07,2013-03-12 03:30:00,
2013-03-11 22:32:00,18.4,16.2,29.69,North,351,0.0,0.0,91,0.00,,,0.39,VWS V12.07,2013-03-12 03:32:00,
2013-03-11 22:33:00,18.4,16.2,29.69,North,351,0.0,0.0,91,0.00,,,0.39,VWS V12.07,2013-03-12 03:33:00,
2013-03-11 22:34:00,18.3,16.1,29.69,North,351,0.0,0.0,91,0.00,,,0.39,VWS V12.07,2013-03-12 03:34:00,
2013-03-11 22:37:00,18.3,16.1,29.69,North,351,0.0,0.0,91,0.00,,,0.39,VWS V12.07,2013-03-12 03:37:00,
2013-03-11 22:38:00,18.3,16.1,29.69,North,351,0.0,0.0,91,0.00,,,0.39,VWS V12.07,2013-03-12 03:38:00,
2013-03-11 22:39:00,18.3,16.1,29.69,North,351,0.0,0.0,91,0.00,,,0.39,VWS V12.07,2013-03-12 03:39:00,
2013-03-11 22:40:00,18.3,16.1,29.69,North,351,0.0,0.0,91,0.00,,,0.39,VWS V12.07,2013-03-12 03:40:00,
2013-03-11 22:43:00,18.3,16.1,29.69,North,351,0.0,0.0,91,0.00,,,0.39,VWS V12.07,2013-03-12 03:43:00,
2013-03-11 22:44:00,18.3,16.1,29.69,North,351,0.0,0.0,91,0.00,,,0.39,VWS V12.07,2013-03-12 03:44:00,
2013-03-11 22:45:00,18.3,16.1,29.69,North,351,0.0,0.0,91,0.00,,,0.39,VWS V12.07,2013-03-12 03:45:00,
2013-03-11 22:48:00,18.3,16.1,29.69,North,351,0.0,1.0,91,0.00,,,0.39,VWS V12.07,2013-03-12 03:48:00,
2013-03-11 22:49:00,18.3,16.1,29.69,North,351,0.0,1.0,91,0.00,,,0.39,VWS V12.07,2013-03-12 03:49:00,
2013-03-11 22:50:00,18.3,16.1,29.69,North,351,0.0,1.0,91,0.00,,,0.39,VWS V12.07,2013-03-12 03:50:00,
2013-03-11 22:53:00,18.1,15.9,29.69,North,351,0.0,1.0,91,0.00,,,0.39,VWS V12.07,2013-03-12 03:53:00,
2013-03-11 22:54:00,18.1,15.9,29.69,North,351,0.0,1.0,91,0.00,,,0.39,VWS V12.07,2013-03-12 03:54:00,
2013-03-11 22:55:00,18.1,15.9,29.69,North,351,0.0,1.0,91,0.00,,,0.39,VWS V12.07,2013-03-12 03:55:00,
2013-03-11 22:58:00,18.1,15.9,29.69,North,351,0.0,0.0,91,0.00,,,0.39,VWS V12.07,2013-03-12 03:58:00,
2013-03-11 22:59:00,18.1,15.9,29.68,North,351,1.0,1.0,91,0.00,,,0.39,VWS V12.07,2013-03-12 03:59:00,
2013-03-11 23:00:00,18.1,15.9,29.68,North,351,0.0,2.0,91,0.00,,,0.39,VWS V12.07,2013-03-12 04:00:00,
2013-03-11 23:05:00,18.1,15.9,29.68,North,351,0.0,2.0,91,0.00,,,0.39,VWS V12.07,2013-03-12 04:05:00,
2013-03-11 23:06:00,18.1,15.9,29.68,North,351,0.0,2.0,91,0.00,,,0.39,VWS V12.07,2013-03-12 04:06:00,
2013-03-11 23:10:00,18.1,15.9,29.68,North,351,0.0,0.0,91,0.00,,,0.39,VWS V12.07,2013-03-12 04:10:00,
2013-03-11 23:11:00,18.1,15.9,29.68,North,351,0.0,0.0,91,0.00,,,0.39,VWS V12.07,2013-03-12 04:11:00,
2013-03-11 23:13:00,18.1,15.9,29.68,North,351,0.0,0.0,91,0.00,,,0.39,VWS V12.07,2013-03-12 04:13:00,
2013-03-11 23:15:00,18.1,15.9,29.68,North,351,0.0,0.0,91,0.00,,,0.39,VWS V12.07,2013-03-12 04:15:00,
2013-03-11 23:16:00,18.1,15.9,29.68,North,351,0.0,0.0,91,0.00,,,0.39,VWS V12.07,2013-03-12 04:16:00,
2013-03-11 23:18:00,18.1,15.9,29.68,North,351,0.0,0.0,91,0.00,,,0.39,VWS V12.07,2013-03-12 04:18:00,
2013-03-11 23:20:00,18.0,15.8,29.68,NW,312,0.0,0.0,91,0.00,,,0.39,VWS V12.07,2013-03-12 04:20:00,
2013-03-11 23:21:00,18.1,15.9,29.68,North,351,0.0,2.0,91,0.00,,,0.39,VWS V12.07,2013-03-12 04:21:00,
2013-03-11 23:22:00,18.1,15.9,29.68,North,351,0.0,2.0,91,0.00,,,0.39,VWS V12.07,2013-03-12 04:22:00,
2013-03-11 23:23:00,18.1,15.9,29.68,North,351,1.0,2.0,91,0.00,,,0.39,VWS V12.07,2013-03-12 04:23:00,
2013-03-11 23:26:00,18.1,15.9,29.68,NW,312,0.0,2.0,91,0.00,,,0.39,VWS V12.07,2013-03-12 04:26:00,
2013-03-11 23:28:00,18.1,15.9,29.68,NW,312,0.0,2.0,91,0.00,,,0.39,VWS V12.07,2013-03-12 04:28:00,
2013-03-11 23:29:00,18.1,15.9,29.68,NW,312,0.0,2.0,91,0.00,,,0.39,VWS V12.07,2013-03-12 04:29:00,
2013-03-11 23:30:00,18.1,15.9,29.68,NW,312,0.0,0.0,91,0.00,,,0.39,VWS V12.07,2013-03-12 04:30:00,
2013-03-11 23:31:00,18.1,15.9,29.68,NW,312,0.0,1.0,91,0.00,,,0.39,VWS V12.07,2013-03-12 04:31:00,
2013-03-11 23:32:00,18.1,15.9,29.68,NW,312,0.0,1.0,91,0.00,,,0.39,VWS V12.07,2013-03-12 04:32:00,
2013-03-11 23:33:00,18.1,15.9,29.68,NW,312,0.0,1.0,91,0.00,,,0.39,VWS V12.07,2013-03-12 04:33:00,
2013-03-11 23:34:00,18.1,15.9,29.68,NW,312,0.0,1.0,91,0.00,,,0.39,VWS V12.07,2013-03-12 04:34:00,
2013-03-11 23:37:00,18.1,15.9,29.68,NW,312,0.0,0.0,91,0.00,,,0.39,VWS V12.07,2013-03-12 04:37:00,
2013-03-11 23:38:00,18.1,15.9,29.68,NW,312,0.0,1.0,91,0.00,,,0.39,VWS V12.07,2013-03-12 04:38:00,
2013-03-11 23:39:00,18.1,15.9,29.68,NW,312,0.0,1.0,91,0.00,,,0.39,VWS V12.07,2013-03-12 04:39:00,
2013-03-11 23:40:00,18.1,15.9,29.68,NW,312,0.0,1.0,91,0.00,,,0.39,VWS V12.07,2013-03-12 04:40:00,
2013-03-11 23:42:00,18.0,15.8,29.68,NW,312,0.0,1.0,91,0.00,,,0.39,VWS V12.07,2013-03-12 04:42:00,
2013-03-11 23:43:00,18.0,15.8,29.68,NW,312,0.0,1.0,91,0.00,,,0.39,VWS V12.07,2013-03-12 04:43:00,
2013-03-11 23:44:00,18.0,15.8,29.68,NW,312,0.0,1.0,91,0.00,,,0.39,VWS V12.07,2013-03-12 04:44:00,
2013-03-11 23:47:00,18.0,15.8,29.68,NW,312,0.0,1.0,91,0.00,,,0.39,VWS V12.07,2013-03-12 04:47:00,
2013-03-11 23:48:00,18.0,15.8,29.68,NW,312,0.0,1.0,91,0.00,,,0.39,VWS V12.07,2013-03-12 04:48:00,
2013-03-11 23:49:00,18.0,15.8,29.68,NW,312,1.0,1.0,91,0.00,,,0.39,VWS V12.07,2013-03-12 04:49:00,
2013-03-11 23:50:00,18.1,15.9,29.68,NW,312,0.0,0.0,91,0.00,,,0.39,VWS V12.07,2013-03-12 04:50:00,
2013-03-11 23:52:00,18.0,15.8,29.68,NW,312,0.0,1.0,91,0.00,,,0.39,VWS V12.07,2013-03-12 04:52:00,
2013-03-11 23:53:00,18.0,15.8,29.68,NW,312,0.0,1.0,91,0.00,,,0.39,VWS V12.07,2013-03-12 04:53:00,
2013-03-11 23:54:00,18.0,15.8,29.68,NW,312,0.0,1.0,91,0.00,,,0.39,VWS V12.07,2013-03-12 04:54:00,
2013-03-11 23:57:00,18.0,15.8,29.68,NW,312,0.0,0.0,91,0.00,,,0.39,VWS V12.07,2013-03-12 04:57:00,
2013-03-11 23:58:00,18.0,15.8,29.68,NW,312,0.0,0.0,91,0.00,,,0.39,VWS V12.07,2013-03-12 04:58:00,
2013-03-11 23:59:00,18.0,15.8,29.68,NW,312,0.0,0.0,91,0.00,,,0.39,VWS V12.07,2013-03-12 04:59:00,